Time,TemperatureF,DewpointF,PressureIn,WindDirection,WindDirectionDegrees,WindSpeedMPH,WindSpeedGustMPH,Humidity,HourlyPrecipIn,Conditions,Clouds,dailyrainin,SolarRadiationWatts/m^2,SoftwareType,DateUTC
2013-03-12 00:00:00,23.2,18.5,30.04,West,260,5.0,5.0,82,0.00,,,0.00,0,Wunderground v.1.15,2013-03-12 05:00:00,
2013-03-12 00:03:00,23.1,18.1,30.04,West,280,3.0,5.0,81,0.00,,,0.00,0,Wunderground v.1.15,2013-03-12 05:03:00,
2013-03-12 00:06:00,23.1,18.1,30.04,West,271,2.0,5.0,81,0.00,,,0.00,0,Wunderground v.1.15,2013-03-12 05:06:00,
2013-03-12 01:28:00,22.6,18.5,30.05,WNW,302,4.0,7.0,84,0.00,,,0.00,0,Wunderground v.1.15,2013-03-12 06:28:00,
2013-03-12 01:29:00,22.6,18.5,30.05,WNW,295,7.0,7.0,84,0.00,,,0.00,0,Wunderground v.1.15,2013-03-12 06:29:00,
2013-03-12 01:30:00,22.7,18.6,30.05,WNW,284,6.0,6.0,84,0.00,,,0.00,0,Wunderground v.1.15,2013-03-12 06:30:00,
2013-03-12 01:33:00,22.9,19.1,30.05,WNW,303,7.0,7.0,85,0.00,,,0.00,0,Wunderground v.1.15,2013-03-12 06:33:00,
2013-03-12 01:34:00,23.0,19.2,30.05,WNW,291,5.0,7.0,85,0.00,,,0.00,0,Wunderground v.1.15,2013-03-12 06:34:00,
2013-03-12 01:35:00,23.1,19.3,30.05,WNW,293,6.0,7.0,85,0.00,,,0.00,0,Wunderground v.1.15,2013-03-12 06:35:00,
2013-03-12 01:36:00,23.1,19.5,30.05,NW,305,7.0,7.0,86,0.00,,,0.00,0,Wunderground v.1.15,2013-03-12 06:36:00,
2013-03-12 01:40:00,23.5,19.9,30.05,WNW,285,6.0,6.0,86,0.00,,,0.00,0,Wunderground v.1.15,2013-03-12 06:40:00,
2013-03-12 01:42:00,23.6,20.0,30.05,WNW,288,3.0,6.0,86,0.00,,,0.00,0,Wunderground v.1.15,2013-03-12 06:42:00,
2013-03-12 01:44:00,23.8,20.2,30.05,NW,306,6.0,6.0,86,0.00,,,0.00,0,Wunderground v.1.15,2013-03-12 06:44:00,
2013-03-12 01:45:00,23.8,20.2,30.05,WNW,293,3.0,6.0,86,0.00,,,0.00,0,Wunderground v.1.15,2013-03-12 06:45:00,
2013-03-12 01:48:00,23.9,20.3,30.05,WNW,298,2.0,6.0,86,0.00,,,0.00,0,Wunderground v.1.15,2013-03-12 06:48:00,
2013-03-12 01:49:00,23.9,20.3,30.05,WNW,299,5.0,6.0,86,0.00,,,0.00,0,Wunderground v.1.15,2013-03-12 06:49:00,
2013-03-12 01:51:00,24.0,20.4,30.05,WNW,294,6.0,6.0,86,0.00,,,0.00,0,Wunderground v.1.15,2013-03-12 06:51:00,
2013-03-12 01:53:00,24.0,20.4,30.06,WNW,296,4.0,6.0,86,0.00,,,0.00,0,Wunderground v.1.15,2013-03-12 06:53:00,
2013-03-12 01:55:00,24.0,20.4,30.06,West,261,5.0,6.0,86,0.00,,,0.00,0,Wunderground v.1.15,2013-03-12 06:55:00,
2013-03-12 01:59:00,24.1,20.5,30.06,WSW,255,3.0,6.0,86,0.00,,,0.00,0,Wunderground v.1.15,2013-03-12 06:59:00,
2013-03-12 02:00:00,24.0,20.4,30.06,West,262,2.0,4.0,86,0.00,,,0.00,0,Wunderground v.1.15,2013-03-12 07:00:00,
2013-03-12 02:02:00,24.0,20.4,30.07,West,272,6.0,6.0,86,0.00,,,0.00,0,Wunderground v.1.15,2013-03-12 07:02:00,
2013-03-12 02:05:00,24.0,20.4,30.07,West,270,3.0,7.0,86,0.00,,,0.00,0,Wunderground v.1.15,2013-03-12 07:05:00,
2013-03-12 02:07:00,24.0,20.4,30.07,West,261,4.0,7.0,86,0.00,,,0.00,0,Wunderground v.1.15,2013-03-12 07:07:00,
2013-03-12 02:10:00,23.9,20.3,30.07,WSW,253,3.0,4.0,86,0.00,,,0.00,0,Wunderground v.1.15,2013-03-12 07:10:00,
2013-03-12 02:12:00,23.9,20.3,30.08,West,267,2.0,5.0,86,0.00,,,0.00,0,Wunderground v.1.15,2013-03-12 07:12:00,
2013-03-12 02:16:00,23.7,19.9,30.08,WNW,287,6.0,6.0,85,0.00,,,0.00,0,Wunderground v.1.15,2013-03-12 07:16:00,
2013-03-12 02:17:00,23.7,19.9,30.08,West,268,2.0,6.0,85,0.00,,,0.00,0,Wunderground v.1.15,2013-03-12 07:17:00,
2013-03-12 02:18:00,23.6,19.8,30.08,West,275,4.0,6.0,85,0.00,,,0.00,0,Wunderground v.1.15,2013-03-12 07:18:00,
2013-03-12 02:21:00,23.6,19.8,30.08,WNW,289,6.0,7.0,85,0.00,,,0.00,0,Wunderground v.1.15,2013-03-12 07:21:00,
2013-03-12 02:22:00,23.5,19.7,30.08,West,274,5.0,7.0,85,0.00,,,0.00,0,Wunderground v.1.15,2013-03-12 07:22:00,
2013-03-12 02:23:00,23.5,19.7,30.08,WNW,288,4.0,7.0,85,0.00,,,0.00,0,Wunderground v.1.15,2013-03-12 07:23:00,
2013-03-12 02:27:00,23.5,19.9,30.08,WNW,295,5.0,7.0,86,0.00,,,0.00,0,Wunderground v.1.15,2013-03-12 07:27:00,
2013-03-12 02:28:00,23.5,19.9,30.08,WNW,291,5.0,7.0,86,0.00,,,0.00,0,Wunderground v.1.15,2013-03-12 07:28:00,
2013-03-12 02:32:00,23.5,19.9,30.08,West,261,4.0,6.0,86,0.00,,,0.00,0,Wunderground v.1.15,2013-03-12 07:32:00,
2013-03-12 02:33:00,23.5,19.9,30.08,West,281,5.0,6.0,86,0.00,,,0.00,0,Wunderground v.1.15,2013-03-12 07:33:00,
2013-03-12 02:35:00,23.5,19.9,30.08,WNW,292,5.0,6.0,86,0.00,,,0.00,0,Wunderground v.1.15,2013-03-12 07:35:00,
2013-03-12 02:37:00,23.6,20.0,30.08,NW,304,4.0,6.0,86,0.00,,,0.00,0,Wunderground v.1.15,2013-03-12 07:37:00,
2013-03-12 02:38:00,23.6,20.0,30.08,West,273,3.0,6.0,86,0.00,,,0.00,0,Wunderground v.1.15,2013-03-12 07:38:00,
2013-03-12 02:40:00,23.5,19.9,30.08,WNW,296,3.0,4.0,86,0.00,,,0.00,0,Wunderground v.1.15,2013-03-12 07:40:00,
2013-03-12 02:43:00,23.6,20.0,30.08,NW,308,5.0,5.0,86,0.00,,,0.00,0,Wunderground v.1.15,2013-03-12 07:43:00,
2013-03-12 02:45:00,23.6,20.3,30.08,WNW,284,3.0,9.0,87,0.00,,,0.00,0,Wunderground v.1.15,2013-03-12 07:45:00,
2013-03-12 02:48:00,23.6,20.3,30.08,West,270,5.0,9.0,87,0.00,,,0.00,0,Wunderground v.1.15,2013-03-12 07:48:00,
2013-03-12 02:51:00,23.6,20.3,30.08,West,280,4.0,4.0,87,0.00,,,0.00,0,Wunderground v.1.15,2013-03-12 07:51:00,
2013-03-12 02:53:00,23.6,20.3,30.08,WNW,300,2.0,8.0,87,0.00,,,0.00,0,Wunderground v.1.15,2013-03-12 07:53:00,
2013-03-12 02:54:00,23.6,20.3,30.08,WNW,294,4.0,8.0,87,0.00,,,0.00,0,Wunderground v.1.15,2013-03-12 07:54:00,
2013-03-12 02:56:00,23.6,20.3,30.08,WNW,293,3.0,8.0,87,0.00,,,0.00,0,Wunderground v.1.15,2013-03-12 07:56:00,
2013-03-12 02:59:00,23.6,20.3,30.08,WNW,299,3.0,8.0,87,0.00,,,0.00,0,Wunderground v.1.15,2013-03-12 07:59:00,
2013-03-12 03:03:00,23.6,20.3,30.08,WNW,291,6.0,7.0,87,0.00,,,0.00,0,Wunderground v.1.15,2013-03-12 08:03:00,
2013-03-12 03:04:00,23.7,20.4,30.08,WSW,248,3.0,8.0,87,0.00,,,0.00,0,Wunderground v.1.15,2013-03-12 08:04:00,
2013-03-12 03:05:00,23.7,20.4,30.08,West,263,4.0,8.0,87,0.00,,,0.00,0,Wunderground v.1.15,2013-03-12 08:05:00,
2013-03-12 03:08:00,23.7,20.4,30.08,WNW,285,4.0,8.0,87,0.00,,,0.00,0,Wunderground v.1.15,2013-03-12 08:08:00,
2013-03-12 03:09:00,23.7,20.4,30.08,West,263,4.0,8.0,87,0.00,,,0.00,0,Wunderground v.1.15,2013-03-12 08:09:00,
2013-03-12 03:10:00,23.7,20.4,30.08,West,276,3.0,8.0,87,0.00,,,0.00,0,Wunderground v.1.15,2013-03-12 08:10:00,
2013-03-12 03:13:00,23.7,20.4,30.08,West,276,3.0,6.0,87,0.00,,,0.00,0,Wunderground v.1.15,2013-03-12 08:13:00,
2013-03-12 03:14:00,23.6,20.3,30.08,WNW,288,4.0,6.0,87,0.00,,,0.00,0,Wunderground v.1.15,2013-03-12 08:14:00,
2013-03-12 03:15:00,23.6,20.3,30.08,WNW,291,4.0,7.0,87,0.00,,,0.00,0,Wunderground v.1.15,2013-03-12 08:15:00,
2013-03-12 03:18:00,23.6,20.3,30.08,West,274,4.0,7.0,87,0.00,,,0.00,0,Wunderground v.1.15,2013-03-12 08:18:00,
2013-03-12 03:19:00,23.6,20.3,30.08,WNW,287,3.0,7.0,87,0.00,,,0.00,0,Wunderground v.1.15,2013-03-12 08:19:00,
2013-03-12 03:20:00,23.6,20.3,30.08,WNW,289,4.0,4.0,87,0.00,,,0.00,0,Wunderground v.1.15,2013-03-12 08:20:00,
2013-03-12 03:21:00,23.6,20.3,30.08,WNW,284,4.0,4.0,87,0.00,,,0.00,0,Wunderground v.1.15,2013-03-12 08:21:00,
2013-03-12 03:23:00,23.6,20.6,30.08,WSW,257,3.0,5.0,88,0.00,,,0.00,0,Wunderground v.1.15,2013-03-12 08:23:00,
2013-03-12 03:25:00,23.6,20.6,30.08,WNW,284,4.0,6.0,88,0.00,,,0.00,0,Wunderground v.1.15,2013-03-12 08:25:00,
2013-03-12 03:26:00,23.6,20.6,30.08,WNW,289,3.0,6.0,88,0.00,,,0.00,0,Wunderground v.1.15,2013-03-12 08:26:00,
2013-03-12 03:29:00,23.6,20.6,30.08,WNW,282,3.0,6.0,88,0.00,,,0.00,0,Wunderground v.1.15,2013-03-12 08:29:00,
2013-03-12 03:30:00,23.6,20.6,30.08,West,278,6.0,6.0,88,0.00,,,0.00,0,Wunderground v.1.15,2013-03-12 08:30:00,
2013-03-12 03:31:00,23.5,20.5,30.08,West,278,3.0,6.0,88,0.00,,,0.00,0,Wunderground v.1.15,2013-03-12 08:31:00,
2013-03-12 03:32:00,23.6,20.6,30.08,West,278,3.0,6.0,88,0.00,,,0.00,0,Wunderground v.1.15,2013-03-12 08:32:00,
2013-03-12 03:34:00,23.6,20.6,30.08,WNW,287,5.0,6.0,88,0.00,,,0.00,0,Wunderground v.1.15,2013-03-12 08:34:00,
2013-03-12 03:35:00,23.6,20.6,30.08,West,281,4.0,6.0,88,0.00,,,0.00,0,Wunderground v.1.15,2013-03-12 08:35:00,
2013-03-12 03:37:00,23.6,20.6,30.08,WNW,293,3.0,6.0,88,0.00,,,0.00,0,Wunderground v.1.15,2013-03-12 08:37:00,
2013-03-12 03:39:00,23.6,20.6,30.08,WNW,294,4.0,6.0,88,0.00,,,0.00,0,Wunderground v.1.15,2013-03-12 08:39:00,
2013-03-12 03:41:00,23.6,20.6,30.08,WNW,291,4.0,5.0,88,0.00,,,0.00,0,Wunderground v.1.15,2013-03-12 08:41:00,
2013-03-12 03:42:00,23.7,20.7,30.08,West,262,4.0,6.0,88,0.00,,,0.00,0,Wunderground v.1.15,2013-03-12 08:42:00,
2013-03-12 03:43:00,23.7,20.7,30.08,West,262,4.0,6.0,88,0.00,,,0.00,0,Wunderground v.1.15,2013-03-12 08:43:00,
2013-03-12 03:44:00,23.7,20.7,30.08,WNW,291,3.0,6.0,88,0.00,,,0.00,0,Wunderground v.1.15,2013-03-12 08:44:00,
2013-03-12 03:46:00,23.8,20.8,30.08,West,276,6.0,6.0,88,0.00,,,0.00,0,Wunderground v.1.15,2013-03-12 08:46:00,
2013-03-12 03:48:00,23.8,21.0,30.08,West,261,3.0,7.0,89,0.00,,,0.00,0,Wunderground v.1.15,2013-03-12 08:48:00,
2013-03-12 03:49:00,23.9,21.1,30.08,WNW,287,3.0,7.0,89,0.00,,,0.00,0,Wunderground v.1.15,2013-03-12 08:49:00,
2013-03-12 03:50:00,23.8,21.0,30.08,WNW,283,3.0,4.0,89,0.00,,,0.00,0,Wunderground v.1.15,2013-03-12 08:50:00,
2013-03-12 03:53:00,23.9,21.1,30.08,WNW,288,3.0,6.0,89,0.00,,,0.00,0,Wunderground v.1.15,2013-03-12 08:53:00,
2013-03-12 03:55:00,23.9,21.1,30.08,WNW,286,3.0,6.0,89,0.00,,,0.00,0,Wunderground v.1.15,2013-03-12 08:55:00,
2013-03-12 03:58:00,23.8,21.0,30.08,West,275,4.0,6.0,89,0.00,,,0.00,0,Wunderground v.1.15,2013-03-12 08:58:00,
2013-03-12 04:00:00,23.9,21.1,30.08,West,273,2.0,6.0,89,0.00,,,0.00,0,Wunderground v.1.15,2013-03-12 09:00:00,
2013-03-12 04:05:00,23.8,21.0,30.08,West,271,1.0,3.0,89,0.00,,,0.00,0,Wunderground v.1.15,2013-03-12 09:05:00,
2013-03-12 04:10:00,23.7,20.7,30.08,West,267,3.0,5.0,88,0.00,,,0.00,0,Wunderground v.1.15,2013-03-12 09:10:00,
2013-03-12 04:16:00,23.7,20.9,30.08,West,264,2.0,5.0,89,0.00,,,0.00,0,Wunderground v.1.15,2013-03-12 09:16:00,
2013-03-12 04:21:00,23.7,20.9,30.07,WNW,285,2.0,4.0,89,0.00,,,0.00,0,Wunderground v.1.15,2013-03-12 09:21:00,
2013-03-12 04:22:00,23.6,20.8,30.08,West,281,3.0,4.0,89,0.00,,,0.00,0,Wunderground v.1.15,2013-03-12 09:22:00,
2013-03-12 04:27:00,23.5,20.7,30.08,WSW,248,4.0,5.0,89,0.00,,,0.00,0,Wunderground v.1.15,2013-03-12 09:27:00,
2013-03-12 04:28:00,23.5,20.7,30.08,West,273,3.0,5.0,89,0.00,,,0.00,0,Wunderground v.1.15,2013-03-12 09:28:00,
2013-03-12 04:32:00,23.5,20.7,30.08,WSW,252,3.0,5.0,89,0.00,,,0.00,0,Wunderground v.1.15,2013-03-12 09:32:00,
2013-03-12 04:33:00,23.5,20.7,30.08,West,267,3.0,5.0,89,0.00,,,0.00,0,Wunderground v.1.15,2013-03-12 09:33:00,
2013-03-12 04:37:00,23.4,20.6,30.08,West,267,3.0,6.0,89,0.00,,,0.00,0,Wunderground v.1.15,2013-03-12 09:37:00,
2013-03-12 04:38:00,23.4,20.6,30.08,West,267,3.0,6.0,89,0.00,,,0.00,0,Wunderground v.1.15,2013-03-12 09:38:00,
2013-03-12 04:39:00,23.4,20.6,30.07,West,269,3.0,4.0,89,0.00,,,0.00,0,Wunderground v.1.15,2013-03-12 09:39:00,
2013-03-12 04:42:00,23.4,20.6,30.07,WSW,257,2.0,4.0,89,0.00,,,0.00,0,Wunderground v.1.15,2013-03-12 09:42:00,
2013-03-12 04:43:00,23.4,20.6,30.07,WSW,257,3.0,4.0,89,0.00,,,0.00,0,Wunderground v.1.15,2013-03-12 09:43:00,
2013-03-12 04:44:00,23.4,20.6,30.07,WSW,254,2.0,4.0,89,0.00,,,0.00,0,Wunderground v.1.15,2013-03-12 09:44:00,
2013-03-12 04:47:00,23.3,20.5,30.07,WSW,254,1.0,4.0,89,0.00,,,0.00,0,Wunderground v.1.15,2013-03-12 09:47:00,
2013-03-12 04:48:00,23.3,20.5,30.07,WSW,254,4.0,4.0,89,0.00,,,0.00,0,Wunderground v.1.15,2013-03-12 09:48:00,
2013-03-12 04:49:00,23.3,20.5,30.07,WSW,252,3.0,4.0,89,0.00,,,0.00,0,Wunderground v.1.15,2013-03-12 09:49:00,
2013-03-12 04:50:00,23.3,20.5,30.07,SW,236,3.0,4.0,89,0.00,,,0.00,0,Wunderground v.1.15,2013-03-12 09:50:00,
2013-03-12 04:53:00,23.2,20.4,30.07,SW,236,3.0,4.0,89,0.00,,,0.00,0,Wunderground v.1.15,2013-03-12 09:53:00,
2013-03-12 04:54:00,23.2,20.4,30.07,SW,234,4.0,4.0,89,0.00,,,0.00,0,Wunderground v.1.15,2013-03-12 09:54:00,
2013-03-12 04:55:00,23.1,20.3,30.07,SW,234,3.0,5.0,89,0.00,,,0.00,0,Wunderground v.1.15,2013-03-12 09:55:00,
2013-03-12 04:58:00,23.1,20.3,30.07,SW,230,3.0,5.0,89,0.00,,,0.00,0,Wunderground v.1.15,2013-03-12 09:58:00,
2013-03-12 04:59:00,23.1,20.3,30.07,SW,230,5.0,5.0,89,0.00,,,0.00,0,Wunderground v.1.15,2013-03-12 09:59:00,
2013-03-12 05:00:00,23.0,20.2,30.07,SW,231,3.0,3.0,89,0.00,,,0.00,0,Wunderground v.1.15,2013-03-12 10:00:00,
2013-03-12 05:03:00,23.0,20.2,30.07,SW,233,4.0,5.0,89,0.00,,,0.00,0,Wunderground v.1.15,2013-03-12 10:03:00,
2013-03-12 05:04:00,23.0,20.2,30.07,SW,229,3.0,5.0,89,0.00,,,0.00,0,Wunderground v.1.15,2013-03-12 10:04:00,
2013-03-12 05:05:00,23.0,20.2,30.07,WSW,237,5.0,5.0,89,0.00,,,0.00,0,Wunderground v.1.15,2013-03-12 10:05:00,
2013-03-12 05:08:00,23.0,20.2,30.07,SW,227,4.0,8.0,89,0.00,,,0.00,0,Wunderground v.1.15,2013-03-12 10:08:00,
2013-03-12 05:09:00,23.0,20.2,30.07,WSW,239,6.0,8.0,89,0.00,,,0.00,0,Wunderground v.1.15,2013-03-12 10:09:00,
2013-03-12 05:11:00,23.0,20.2,30.07,WSW,245,4.0,6.0,89,0.00,,,0.00,0,Wunderground v.1.15,2013-03-12 10:11:00,
2013-03-12 05:12:00,23.0,20.2,30.07,WSW,250,7.0,7.0,89,0.00,,,0.00,0,Wunderground v.1.15,2013-03-12 10:12:00,
2013-03-12 05:13:00,23.0,20.5,30.07,WSW,239,5.0,7.0,90,0.00,,,0.00,0,Wunderground v.1.15,2013-03-12 10:13:00,
2013-03-12 05:15:00,23.1,20.6,30.07,SW,217,7.0,8.0,90,0.00,,,0.00,0,Wunderground v.1.15,2013-03-12 10:15:00,
2013-03-12 05:16:00,23.1,20.6,30.07,SW,229,5.0,8.0,90,0.00,,,0.00,0,Wunderground v.1.15,2013-03-12 10:16:00,
2013-03-12 05:17:00,23.1,20.6,30.07,WSW,252,4.0,8.0,90,0.00,,,0.00,0,Wunderground v.1.15,2013-03-12 10:17:00,
2013-03-12 05:19:00,23.3,20.8,30.07,SW,227,5.0,8.0,90,0.00,,,0.00,0,Wunderground v.1.15,2013-03-12 10:19:00,
2013-03-12 05:20:00,23.3,20.8,30.07,WSW,246,4.0,5.0,90,0.00,,,0.00,0,Wunderground v.1.15,2013-03-12 10:20:00,
2013-03-12 05:21:00,23.3,20.8,30.07,SW,229,4.0,6.0,90,0.00,,,0.00,0,Wunderground v.1.15,2013-03-12 10:21:00,
2013-03-12 05:22:00,23.3,20.8,30.07,SW,225,6.0,7.0,90,0.00,,,0.00,0,Wunderground v.1.15,2013-03-12 10:22:00,
2013-03-12 05:25:00,23.3,20.8,30.07,SW,228,9.0,10.0,90,0.00,,,0.00,0,Wunderground v.1.15,2013-03-12 10:25:00,
2013-03-12 05:27:00,23.3,20.8,30.07,SW,220,9.0,10.0,90,0.00,,,0.00,0,Wunderground v.1.15,2013-03-12 10:27:00,
2013-03-12 05:30:00,23.3,20.8,30.07,SW,230,6.0,10.0,90,0.00,,,0.00,0,Wunderground v.1.15,2013-03-12 10:30:00,
2013-03-12 05:31:00,23.3,20.8,30.07,WSW,239,5.0,10.0,90,0.00,,,0.00,0,Wunderground v.1.15,2013-03-12 10:31:00,
2013-03-12 05:32:00,23.3,20.8,30.07,SW,231,7.0,10.0,90,0.00,,,0.00,0,Wunderground v.1.15,2013-03-12 10:32:00,
2013-03-12 05:33:00,23.3,20.8,30.07,SW,235,5.0,10.0,90,0.00,,,0.00,0,Wunderground v.1.15,2013-03-12 10:33:00,
2013-03-12 05:36:00,23.3,20.8,30.07,SSW,212,7.0,10.0,90,0.00,,,0.00,0,Wunderground v.1.15,2013-03-12 10:36:00,
2013-03-12 05:38:00,23.2,20.7,30.07,SW,231,6.0,10.0,90,0.00,,,0.00,0,Wunderground v.1.15,2013-03-12 10:38:00,
2013-03-12 05:42:00,23.2,20.7,30.07,SW,217,5.0,7.0,90,0.00,,,0.00,0,Wunderground v.1.15,2013-03-12 10:42:00,
2013-03-12 05:43:00,23.2,20.7,30.08,SW,225,7.0,7.0,90,0.00,,,0.00,0,Wunderground v.1.15,2013-03-12 10:43:00,
2013-03-12 05:44:00,23.2,20.7,30.08,SW,223,7.0,8.0,90,0.00,,,0.00,0,Wunderground v.1.15,2013-03-12 10:44:00,
2013-03-12 05:47:00,23.2,20.7,30.08,SW,235,4.0,9.0,90,0.00,,,0.00,0,Wunderground v.1.15,2013-03-12 10:47:00,
2013-03-12 05:48:00,23.2,20.7,30.08,SW,226,6.0,9.0,90,0.00,,,0.00,0,Wunderground v.1.15,2013-03-12 10:48:00,
2013-03-12 05:50:00,23.2,20.7,30.08,SW,231,5.0,9.0,90,0.00,,,0.00,0,Wunderground v.1.15,2013-03-12 10:50:00,
2013-03-12 05:53:00,23.3,20.8,30.08,SW,228,7.0,9.0,90,0.00,,,0.00,0,Wunderground v.1.15,2013-03-12 10:53:00,
2013-03-12 05:54:00,23.3,20.8,30.08,SW,234,5.0,9.0,90,0.00,,,0.00,0,Wunderground v.1.15,2013-03-12 10:54:00,
2013-03-12 05:55:00,23.3,20.8,30.08,SW,230,7.0,9.0,90,0.00,,,0.00,0,Wunderground v.1.15,2013-03-12 10:55:00,
2013-03-12 05:58:00,23.4,20.9,30.08,SW,224,7.0,9.0,90,0.00,,,0.00,0,Wunderground v.1.15,2013-03-12 10:58:00,
2013-03-12 05:59:00,23.4,20.9,30.08,SW,217,7.0,9.0,90,0.00,,,0.00,0,Wunderground v.1.15,2013-03-12 10:59:00,
2013-03-12 06:00:00,23.4,20.9,30.08,WSW,244,5.0,9.0,90,0.00,,,0.00,0,Wunderground v.1.15,2013-03-12 11:00:00,
2013-03-12 06:03:00,23.5,21.0,30.08,SW,223,6.0,8.0,90,0.00,,,0.00,0,Wunderground v.1.15,2013-03-12 11:03:00,
2013-03-12 06:05:00,23.5,21.0,30.08,SW,228,6.0,9.0,90,0.00,,,0.00,0,Wunderground v.1.15,2013-03-12 11:05:00,
2013-03-12 06:06:00,23.5,21.0,30.08,WSW,239,5.0,9.0,90,0.00,,,0.00,0,Wunderground v.1.15,2013-03-12 11:06:00,
2013-03-12 06:09:00,23.6,21.1,30.08,SW,231,6.0,9.0,90,0.00,,,0.00,0,Wunderground v.1.15,2013-03-12 11:09:00,
2013-03-12 06:10:00,23.7,21.2,30.08,WSW,241,7.0,7.0,90,0.00,,,0.00,0,Wunderground v.1.15,2013-03-12 11:10:00,
2013-03-12 06:11:00,23.7,21.2,30.08,WSW,249,5.0,7.0,90,0.00,,,0.00,0,Wunderground v.1.15,2013-03-12 11:11:00,
2013-03-12 06:14:00,23.8,21.3,30.08,SW,229,5.0,7.0,90,0.00,,,0.00,0,Wunderground v.1.15,2013-03-12 11:14:00,
2013-03-12 06:15:00,23.9,21.4,30.08,WSW,254,7.0,7.0,90,0.00,,,0.00,0,Wunderground v.1.15,2013-03-12 11:15:00,
2013-03-12 06:16:00,23.8,21.3,30.08,SW,227,5.0,7.0,90,0.00,,,0.00,0,Wunderground v.1.15,2013-03-12 11:16:00,
2013-03-12 06:17:00,23.9,21.4,30.08,WSW,238,6.0,8.0,90,0.00,,,0.00,0,Wunderground v.1.15,2013-03-12 11:17:00,
2013-03-12 06:19:00,24.0,21.8,30.09,SW,230,9.0,9.0,91,0.00,,,0.00,0,Wunderground v.1.15,2013-03-12 11:19:00,
2013-03-12 06:20:00,24.0,21.8,30.09,SW,231,6.0,9.0,91,0.00,,,0.00,0,Wunderground v.1.15,2013-03-12 11:20:00,
2013-03-12 06:21:00,24.0,21.5,30.09,SW,233,10.0,10.0,90,0.00,,,0.00,0,Wunderground v.1.15,2013-03-12 11:21:00,
2013-03-12 06:22:00,24.0,21.5,30.09,WSW,250,7.0,10.0,90,0.00,,,0.00,0,Wunderground v.1.15,2013-03-12 11:22:00,
2013-03-12 06:24:00,24.0,21.5,30.09,WSW,243,7.0,11.0,90,0.00,,,0.00,0,Wunderground v.1.15,2013-03-12 11:24:00,
2013-03-12 06:25:00,24.0,21.5,30.09,WSW,247,6.0,11.0,90,0.00,,,0.00,0,Wunderground v.1.15,2013-03-12 11:25:00,
2013-03-12 06:27:00,23.9,21.4,30.09,SW,235,11.0,11.0,90,0.00,,,0.00,0,Wunderground v.1.15,2013-03-12 11:27:00,
2013-03-12 06:29:00,23.8,21.3,30.09,SW,218,9.0,12.0,90,0.00,,,0.00,0,Wunderground v.1.15,2013-03-12 11:29:00,
2013-03-12 06:30:00,23.8,21.3,30.09,WSW,244,7.0,11.0,90,0.00,,,0.00,0,Wunderground v.1.15,2013-03-12 11:30:00,
2013-03-12 06:32:00,23.8,21.3,30.10,WSW,244,8.0,13.0,90,0.00,,,0.00,0,Wunderground v.1.15,2013-03-12 11:32:00,
2013-03-12 06:35:00,23.7,21.2,30.10,WSW,239,9.0,13.0,90,0.00,,,0.00,0,Wunderground v.1.15,2013-03-12 11:35:00,
2013-03-12 06:36:00,23.7,21.2,30.10,WSW,248,7.0,13.0,90,0.00,,,0.00,0,Wunderground v.1.15,2013-03-12 11:36:00,
2013-03-12 06:37:00,23.7,21.2,30.10,WSW,250,7.0,13.0,90,0.00,,,0.00,0,Wunderground v.1.15,2013-03-12 11:37:00,
2013-03-12 06:40:00,23.6,21.1,30.10,SW,235,5.0,10.0,90,0.00,,,0.00,0,Wunderground v.1.15,2013-03-12 11:40:00,
2013-03-12 06:41:00,23.6,21.1,30.10,WSW,242,7.0,10.0,90,0.00,,,0.00,0,Wunderground v.1.15,2013-03-12 11:41:00,
2013-03-12 06:43:00,23.6,21.1,30.10,WSW,238,7.0,11.0,90,0.00,,,0.00,0,Wunderground v.1.15,2013-03-12 11:43:00,
2013-03-12 06:46:00,23.6,21.1,30.09,WSW,241,5.0,11.0,90,0.00,,,0.00,0,Wunderground v.1.15,2013-03-12 11:46:00,
2013-03-12 06:48:00,23.5,20.7,30.10,WSW,250,5.0,11.0,89,0.00,,,0.00,0,Wunderground v.1.15,2013-03-12 11:48:00,
2013-03-12 06:52:00,23.5,20.7,30.10,WSW,237,7.0,7.0,89,0.00,,,0.00,0,Wunderground v.1.15,2013-03-12 11:52:00,
2013-03-12 06:53:00,23.5,20.7,30.10,WSW,248,7.0,7.0,89,0.00,,,0.00,0,Wunderground v.1.15,2013-03-12 11:53:00,
2013-03-12 06:54:00,23.5,20.7,30.10,SW,225,6.0,7.0,89,0.00,,,0.00,0,Wunderground v.1.15,2013-03-12 11:54:00,
2013-03-12 06:58:00,23.5,20.7,30.10,WSW,250,7.0,8.0,89,0.00,,,0.00,0,Wunderground v.1.15,2013-03-12 11:58:00,
2013-03-12 06:59:00,23.5,20.7,30.10,WSW,256,5.0,8.0,89,0.00,,,0.00,0,Wunderground v.1.15,2013-03-12 11:59:00,
2013-03-12 07:00:00,23.6,20.8,30.10,WSW,254,5.0,6.0,89,0.00,,,0.00,0,Wunderground v.1.15,2013-03-12 12:00:00,
2013-03-12 07:03:00,23.6,20.8,30.10,West,267,9.0,9.0,89,0.00,,,0.00,0,Wunderground v.1.15,2013-03-12 12:03:00,
2013-03-12 07:06:00,23.7,20.9,30.10,West,264,7.0,9.0,89,0.00,,,0.00,0,Wunderground v.1.15,2013-03-12 12:06:00,
2013-03-12 07:08:00,23.8,21.0,30.10,West,272,7.0,9.0,89,0.00,,,0.00,0,Wunderground v.1.15,2013-03-12 12:08:00,
2013-03-12 07:11:00,23.9,21.1,30.10,WSW,252,10.0,10.0,89,0.00,,,0.00,0,Wunderground v.1.15,2013-03-12 12:11:00,
2013-03-12 07:12:00,24.0,21.2,30.10,SW,233,5.0,10.0,89,0.00,,,0.00,0,Wunderground v.1.15,2013-03-12 12:12:00,
2013-03-12 07:13:00,24.0,21.2,30.10,WSW,248,5.0,10.0,89,0.00,,,0.00,0,Wunderground v.1.15,2013-03-12 12:13:00,
2013-03-12 07:14:00,24.0,21.2,30.11,WSW,250,9.0,10.0,89,0.00,,,0.00,0,Wunderground v.1.15,2013-03-12 12:14:00,
2013-03-12 07:16:00,24.1,21.3,30.11,WSW,250,7.0,10.0,89,0.00,,,0.00,0,Wunderground v.1.15,2013-03-12 12:16:00,
2013-03-12 07:17:00,24.2,21.4,30.11,West,259,7.0,10.0,89,0.00,,,0.00,0,Wunderground v.1.15,2013-03-12 12:17:00,
2013-03-12 07:19:00,24.3,21.5,30.10,WSW,255,4.0,10.0,89,0.00,,,0.00,0,Wunderground v.1.15,2013-03-12 12:19:00,
2013-03-12 07:22:00,24.3,21.5,30.11,WSW,257,6.0,8.0,89,0.00,,,0.00,0,Wunderground v.1.15,2013-03-12 12:22:00,
2013-03-12 07:23:00,24.4,21.4,30.11,WSW,255,3.0,8.0,88,0.00,,,0.00,0,Wunderground v.1.15,2013-03-12 12:23:00,
2013-03-12 07:25:00,24.4,21.4,30.11,West,261,6.0,11.0,88,0.00,,,0.00,0,Wunderground v.1.15,2013-03-12 12:25:00,
2013-03-12 07:27:00,24.4,21.4,30.11,WSW,249,6.0,11.0,88,0.00,,,0.00,0,Wunderground v.1.15,2013-03-12 12:27:00,
2013-03-12 07:28:00,24.4,21.4,30.11,WSW,256,6.0,11.0,88,0.00,,,0.00,0,Wunderground v.1.15,2013-03-12 12:28:00,
2013-03-12 07:30:00,24.5,21.5,30.11,WSW,254,3.0,11.0,88,0.00,,,0.00,0,Wunderground v.1.15,2013-03-12 12:30:00,
2013-03-12 07:33:00,24.5,21.5,30.11,West,264,5.0,8.0,88,0.00,,,0.00,5,Wunderground v.1.15,2013-03-12 12:33:00,
2013-03-12 07:36:00,24.5,21.5,30.11,West,267,5.0,8.0,88,0.00,,,0.00,5,Wunderground v.1.15,2013-03-12 12:36:00,
2013-03-12 07:38:00,24.5,21.5,30.11,West,279,5.0,11.0,88,0.00,,,0.00,7,Wunderground v.1.15,2013-03-12 12:38:00,
2013-03-12 07:41:00,24.5,21.5,30.11,West,261,5.0,9.0,88,0.00,,,0.00,7,Wunderground v.1.15,2013-03-12 12:41:00,
2013-03-12 07:43:00,24.5,21.5,30.11,West,273,5.0,9.0,88,0.00,,,0.00,9,Wunderground v.1.15,2013-03-12 12:43:00,
2013-03-12 07:46:00,24.5,21.2,30.11,West,274,6.0,9.0,87,0.00,,,0.00,9,Wunderground v.1.15,2013-03-12 12:46:00,
2013-03-12 07:49:00,24.5,21.2,30.12,WSW,252,3.0,9.0,87,0.00,,,0.00,12,Wunderground v.1.15,2013-03-12 12:49:00,
2013-03-12 07:52:00,24.4,21.1,30.12,West,277,9.0,9.0,87,0.00,,,0.00,14,Wunderground v.1.15,2013-03-12 12:52:00,
2013-03-12 07:54:00,24.4,21.1,30.12,West,271,8.0,9.0,87,0.00,,,0.00,16,Wunderground v.1.15,2013-03-12 12:54:00,
2013-03-12 07:58:00,24.4,21.1,30.12,West,268,5.0,9.0,87,0.00,,,0.00,19,Wunderground v.1.15,2013-03-12 12:58:00,
2013-03-12 07:59:00,24.4,21.1,30.12,WSW,252,4.0,9.0,87,0.00,,,0.00,19,Wunderground v.1.15,2013-03-12 12:59:00,
2013-03-12 08:00:00,24.4,21.1,30.12,WSW,251,3.0,9.0,87,0.00,,,0.00,19,Wunderground v.1.15,2013-03-12 13:00:00,
2013-03-12 08:05:00,24.4,21.1,30.12,NW,311,6.0,8.0,87,0.00,,,0.00,23,Wunderground v.1.15,2013-03-12 13:05:00,
2013-03-12 08:10:00,24.6,21.3,30.13,West,264,6.0,6.0,87,0.00,,,0.00,28,Wunderground v.1.15,2013-03-12 13:10:00,
2013-03-12 08:15:00,25.0,21.9,30.13,WNW,283,6.0,11.0,88,0.00,,,0.00,46,Wunderground v.1.15,2013-03-12 13:15:00,
2013-03-12 08:16:00,25.1,22.0,30.13,WNW,285,13.0,13.0,88,0.00,,,0.00,46,Wunderground v.1.15,2013-03-12 13:16:00,
2013-03-12 08:20:00,25.6,22.5,30.13,West,279,5.0,8.0,88,0.00,,,0.00,72,Wunderground v.1.15,2013-03-12 13:20:00,
2013-03-12 08:21:00,25.6,22.5,30.13,WSW,256,11.0,11.0,88,0.00,,,0.00,54,Wunderground v.1.15,2013-03-12 13:21:00,
2013-03-12 08:25:00,26.0,22.7,30.13,WNW,285,6.0,11.0,87,0.00,,,0.00,84,Wunderground v.1.15,2013-03-12 13:25:00,
2013-03-12 08:26:00,26.1,23.0,30.13,West,273,4.0,11.0,88,0.00,,,0.00,84,Wunderground v.1.15,2013-03-12 13:26:00,
2013-03-12 08:28:00,26.3,23.0,30.14,West,280,10.0,11.0,87,0.00,,,0.00,72,Wunderground v.1.15,2013-03-12 13:28:00,
2013-03-12 08:31:00,26.5,23.2,30.14,NW,306,7.0,7.0,87,0.00,,,0.00,67,Wunderground v.1.15,2013-03-12 13:31:00,
2013-03-12 08:32:00,26.7,23.4,30.14,West,269,7.0,9.0,87,0.00,,,0.00,70,Wunderground v.1.15,2013-03-12 13:32:00,
2013-03-12 08:34:00,26.9,23.5,30.14,NW,307,6.0,13.0,87,0.00,,,0.00,79,Wunderground v.1.15,2013-03-12 13:34:00,
2013-03-12 08:36:00,27.1,23.7,30.14,WNW,298,7.0,13.0,87,0.00,,,0.00,88,Wunderground v.1.15,2013-03-12 13:36:00,
2013-03-12 08:37:00,27.3,23.9,30.14,WSW,254,7.0,13.0,87,0.00,,,0.00,93,Wunderground v.1.15,2013-03-12 13:37:00,
2013-03-12 08:38:00,27.4,24.0,30.14,WNW,291,10.0,13.0,87,0.00,,,0.00,93,Wunderground v.1.15,2013-03-12 13:38:00,
2013-03-12 08:40:00,27.5,23.9,30.14,WNW,295,4.0,13.0,86,0.00,,,0.00,97,Wunderground v.1.15,2013-03-12 13:40:00,
2013-03-12 08:42:00,27.9,24.3,30.14,WNW,296,9.0,11.0,86,0.00,,,0.00,109,Wunderground v.1.15,2013-03-12 13:42:00,
2013-03-12 08:43:00,27.9,24.3,30.14,NW,325,9.0,15.0,86,0.00,,,0.00,109,Wunderground v.1.15,2013-03-12 13:43:00,
2013-03-12 08:45:00,28.2,26.2,30.14,West,279,7.0,15.0,92,0.00,,,0.00,114,Wunderground v.1.15,2013-03-12 13:45:00,
2013-03-12 08:48:00,28.5,24.6,30.14,NW,304,6.0,15.0,85,0.00,,,0.00,116,Wunderground v.1.15,2013-03-12 13:48:00,
2013-03-12 08:49:00,28.6,24.4,30.14,WNW,287,3.0,15.0,84,0.00,,,0.00,111,Wunderground v.1.15,2013-03-12 13:49:00,
2013-03-12 08:50:00,28.8,24.6,30.15,NW,306,6.0,8.0,84,0.00,,,0.00,120,Wunderground v.1.15,2013-03-12 13:50:00,
2013-03-12 08:53:00,29.1,24.9,30.15,WNW,297,6.0,11.0,84,0.00,,,0.00,100,Wunderground v.1.15,2013-03-12 13:53:00,
2013-03-12 08:54:00,29.2,24.7,30.15,WNW,285,14.0,14.0,83,0.00,,,0.00,104,Wunderground v.1.15,2013-03-12 13:54:00,
2013-03-12 08:56:00,29.4,24.9,30.15,WNW,302,5.0,18.0,83,0.00,,,0.00,121,Wunderground v.1.15,2013-03-12 13:56:00,
2013-03-12 08:59:00,29.7,24.9,30.15,WNW,285,5.0,18.0,82,0.00,,,0.00,121,Wunderground v.1.15,2013-03-12 13:59:00,
2013-03-12 09:01:00,29.9,25.1,30.15,WNW,283,8.0,10.0,82,0.00,,,0.00,116,Wunderground v.1.15,2013-03-12 14:01:00,
2013-03-12 09:04:00,30.1,25.3,30.15,West,262,8.0,10.0,82,0.00,,,0.00,113,Wunderground v.1.15,2013-03-12 14:04:00,
2013-03-12 09:06:00,30.2,25.1,30.15,West,279,17.0,17.0,81,0.00,,,0.00,114,Wunderground v.1.15,2013-03-12 14:06:00,
2013-03-12 09:07:00,30.3,25.2,30.15,WNW,296,5.0,17.0,81,0.00,,,0.00,114,Wunderground v.1.15,2013-03-12 14:07:00,
2013-03-12 09:09:00,30.4,25.3,30.15,WNW,285,6.0,17.0,81,0.00,,,0.00,116,Wunderground v.1.15,2013-03-12 14:09:00,
2013-03-12 09:10:00,30.4,25.3,30.15,NW,308,14.0,17.0,81,0.00,,,0.00,120,Wunderground v.1.15,2013-03-12 14:10:00,
2013-03-12 09:12:00,30.6,25.2,30.15,WNW,285,11.0,18.0,80,0.00,,,0.00,128,Wunderground v.1.15,2013-03-12 14:12:00,
2013-03-12 09:14:00,30.7,25.3,30.15,West,269,8.0,20.0,80,0.00,,,0.00,135,Wunderground v.1.15,2013-03-12 14:14:00,
2013-03-12 09:16:00,30.9,25.2,30.15,WNW,297,13.0,20.0,79,0.00,,,0.00,139,Wunderground v.1.15,2013-03-12 14:16:00,
2013-03-12 09:18:00,31.0,25.2,30.15,WNW,290,12.0,20.0,79,0.00,,,0.00,139,Wunderground v.1.15,2013-03-12 14:18:00,
2013-03-12 09:19:00,31.0,25.2,30.15,West,273,8.0,20.0,79,0.00,,,0.00,135,Wunderground v.1.15,2013-03-12 14:19:00,
2013-03-12 09:22:00,31.2,25.4,30.15,NW,311,18.0,18.0,79,0.00,,,0.00,139,Wunderground v.1.15,2013-03-12 14:22:00,
2013-03-12 09:23:00,31.2,25.4,30.15,NW,309,8.0,18.0,79,0.00,,,0.00,139,Wunderground v.1.15,2013-03-12 14:23:00,
2013-03-12 09:24:00,31.3,25.2,30.16,WNW,295,14.0,18.0,78,0.00,,,0.00,146,Wunderground v.1.15,2013-03-12 14:24:00,
2013-03-12 09:27:00,31.4,25.0,30.16,West,267,4.0,18.0,77,0.00,,,0.00,153,Wunderground v.1.15,2013-03-12 14:27:00,
2013-03-12 09:28:00,31.5,25.1,30.16,West,277,8.0,18.0,77,0.00,,,0.00,158,Wunderground v.1.15,2013-03-12 14:28:00,
2013-03-12 09:30:00,31.5,25.1,30.16,WNW,299,6.0,9.0,77,0.00,,,0.00,156,Wunderground v.1.15,2013-03-12 14:30:00,
2013-03-12 09:32:00,31.7,25.3,30.16,NNW,330,10.0,13.0,77,0.00,,,0.00,162,Wunderground v.1.15,2013-03-12 14:32:00,
2013-03-12 09:33:00,31.7,25.3,30.16,WSW,248,8.0,13.0,77,0.00,,,0.00,162,Wunderground v.1.15,2013-03-12 14:33:00,
2013-03-12 09:35:00,31.8,25.1,30.16,WNW,291,4.0,13.0,76,0.00,,,0.00,156,Wunderground v.1.15,2013-03-12 14:35:00,
2013-03-12 09:38:00,31.9,25.2,30.16,WNW,291,18.0,18.0,76,0.00,,,0.00,158,Wunderground v.1.15,2013-03-12 14:38:00,
2013-03-12 09:39:00,31.9,25.2,30.16,WNW,283,5.0,18.0,76,0.00,,,0.00,158,Wunderground v.1.15,2013-03-12 14:39:00,
2013-03-12 09:40:00,32.0,25.3,30.16,NW,307,7.0,13.0,76,0.00,,,0.00,160,Wunderground v.1.15,2013-03-12 14:40:00,
2013-03-12 09:44:00,32.1,25.1,30.16,NW,312,12.0,16.0,75,0.00,,,0.00,165,Wunderground v.1.15,2013-03-12 14:44:00,
2013-03-12 09:45:00,32.1,25.1,30.16,West,271,5.0,16.0,75,0.00,,,0.00,163,Wunderground v.1.15,2013-03-12 14:45:00,
2013-03-12 09:46:00,32.1,25.1,30.17,West,269,13.0,17.0,75,0.00,,,0.00,167,Wunderground v.1.15,2013-03-12 14:46:00,
2013-03-12 09:49:00,32.2,25.2,30.17,WSW,250,11.0,20.0,75,0.00,,,0.00,174,Wunderground v.1.15,2013-03-12 14:49:00,
2013-03-12 09:50:00,32.3,25.3,30.17,NW,314,6.0,20.0,75,0.00,,,0.00,172,Wunderground v.1.15,2013-03-12 14:50:00,
2013-03-12 09:52:00,32.3,25.3,30.17,WNW,285,11.0,17.0,75,0.00,,,0.00,179,Wunderground v.1.15,2013-03-12 14:52:00,
2013-03-12 09:55:00,32.4,25.0,30.17,NW,304,8.0,17.0,74,0.00,,,0.00,186,Wunderground v.1.15,2013-03-12 14:55:00,
2013-03-12 09:57:00,32.5,25.5,30.17,WNW,288,11.0,17.0,75,0.00,,,0.00,186,Wunderground v.1.15,2013-03-12 14:57:00,
2013-03-12 10:00:00,32.6,25.2,30.17,WNW,287,10.0,19.0,74,0.00,,,0.00,188,Wunderground v.1.15,2013-03-12 15:00:00,
2013-03-12 10:02:00,32.6,24.9,30.17,NNW,329,15.0,16.0,73,0.00,,,0.00,192,Wunderground v.1.15,2013-03-12 15:02:00,
2013-03-12 10:05:00,32.7,25.0,30.17,WNW,282,5.0,22.0,73,0.00,,,0.00,244,Wunderground v.1.15,2013-03-12 15:05:00,
2013-03-12 10:06:00,32.7,25.0,30.17,WNW,286,5.0,22.0,73,0.00,,,0.00,244,Wunderground v.1.15,2013-03-12 15:06:00,
2013-03-12 10:07:00,32.8,25.1,30.17,West,277,7.0,22.0,73,0.00,,,0.00,244,Wunderground v.1.15,2013-03-12 15:07:00,
2013-03-12 10:08:00,32.8,25.1,30.17,WSW,253,7.0,22.0,73,0.00,,,0.00,239,Wunderground v.1.15,2013-03-12 15:08:00,
2013-03-12 10:10:00,32.9,25.5,30.17,NW,321,9.0,12.0,74,0.00,,,0.00,230,Wunderground v.1.15,2013-03-12 15:10:00,
2013-03-12 10:11:00,33.0,25.6,30.17,SW,217,7.0,13.0,74,0.00,,,0.00,230,Wunderground v.1.15,2013-03-12 15:11:00,
2013-03-12 10:12:00,33.0,25.3,30.17,WSW,251,11.0,16.0,73,0.00,,,0.00,234,Wunderground v.1.15,2013-03-12 15:12:00,
2013-03-12 10:13:00,33.1,25.4,30.17,West,278,9.0,16.0,73,0.00,,,0.00,223,Wunderground v.1.15,2013-03-12 15:13:00,
2013-03-12 10:16:00,33.2,25.5,30.17,WNW,296,11.0,16.0,73,0.00,,,0.00,213,Wunderground v.1.15,2013-03-12 15:16:00,
2013-03-12 10:17:00,33.2,25.5,30.17,West,274,8.0,16.0,73,0.00,,,0.00,213,Wunderground v.1.15,2013-03-12 15:17:00,
2013-03-12 10:18:00,33.2,25.5,30.18,NW,310,7.0,16.0,73,0.00,,,0.00,211,Wunderground v.1.15,2013-03-12 15:18:00,
2013-03-12 10:19:00,33.2,25.1,30.17,West,279,11.0,16.0,72,0.00,,,0.00,213,Wunderground v.1.15,2013-03-12 15:19:00,
2013-03-12 10:22:00,33.3,25.6,30.18,WNW,283,9.0,15.0,73,0.00,,,0.00,230,Wunderground v.1.15,2013-03-12 15:22:00,
2013-03-12 10:23:00,33.3,25.6,30.17,WNW,292,16.0,16.0,73,0.00,,,0.00,229,Wunderground v.1.15,2013-03-12 15:23:00,
2013-03-12 10:24:00,33.4,25.3,30.17,WNW,294,13.0,18.0,72,0.00,,,0.00,234,Wunderground v.1.15,2013-03-12 15:24:00,
2013-03-12 10:27:00,33.4,25.3,30.18,West,264,14.0,18.0,72,0.00,,,0.00,239,Wunderground v.1.15,2013-03-12 15:27:00,
2013-03-12 10:28:00,33.4,25.3,30.18,WNW,298,5.0,18.0,72,0.00,,,0.00,239,Wunderground v.1.15,2013-03-12 15:28:00,
2013-03-12 10:29:00,33.6,25.9,30.18,WNW,296,16.0,19.0,73,0.00,,,0.00,250,Wunderground v.1.15,2013-03-12 15:29:00,
2013-03-12 10:32:00,33.7,25.6,30.18,WNW,289,8.0,18.0,72,0.00,,,0.00,255,Wunderground v.1.15,2013-03-12 15:32:00,
2013-03-12 10:33:00,33.7,25.6,30.17,NW,316,18.0,24.0,72,0.00,,,0.00,255,Wunderground v.1.15,2013-03-12 15:33:00,
2013-03-12 10:34:00,33.8,25.7,30.17,NW,314,7.0,24.0,72,0.00,,,0.00,262,Wunderground v.1.15,2013-03-12 15:34:00,
2013-03-12 10:35:00,33.8,25.7,30.18,WNW,289,23.0,24.0,72,0.00,,,0.00,257,Wunderground v.1.15,2013-03-12 15:35:00,
2013-03-12 10:38:00,33.8,27.0,30.18,West,276,14.0,24.0,76,0.00,,,0.00,255,Wunderground v.1.15,2013-03-12 15:38:00,
2013-03-12 10:39:00,33.9,25.5,30.18,West,274,10.0,24.0,71,0.00,,,0.00,260,Wunderground v.1.15,2013-03-12 15:39:00,
2013-03-12 10:43:00,33.9,25.5,30.18,WNW,299,12.0,20.0,71,0.00,,,0.00,269,Wunderground v.1.15,2013-03-12 15:43:00,
2013-03-12 10:44:00,33.9,25.5,30.18,WNW,299,5.0,20.0,71,0.00,,,0.00,278,Wunderground v.1.15,2013-03-12 15:44:00,
2013-03-12 10:45:00,34.0,25.6,30.18,WNW,295,18.0,20.0,71,0.00,,,0.00,292,Wunderground v.1.15,2013-03-12 15:45:00,
2013-03-12 10:48:00,34.1,25.7,30.18,West,281,7.0,20.0,71,0.00,,,0.00,325,Wunderground v.1.15,2013-03-12 15:48:00,
2013-03-12 10:49:00,34.1,26.0,30.18,West,262,11.0,20.0,72,0.00,,,0.00,313,Wunderground v.1.15,2013-03-12 15:49:00,
2013-03-12 10:50:00,34.2,26.1,30.18,WNW,294,12.0,12.0,72,0.00,,,0.00,316,Wunderground v.1.15,2013-03-12 15:50:00,
2013-03-12 10:53:00,34.3,25.9,30.18,WNW,302,8.0,19.0,71,0.00,,,0.00,329,Wunderground v.1.15,2013-03-12 15:53:00,
2013-03-12 10:54:00,34.4,26.0,30.18,West,281,14.0,19.0,71,0.00,,,0.00,327,Wunderground v.1.15,2013-03-12 15:54:00,
2013-03-12 10:55:00,34.4,26.0,30.18,NW,316,7.0,19.0,71,0.00,,,0.00,320,Wunderground v.1.15,2013-03-12 15:55:00,
2013-03-12 10:56:00,34.4,26.0,30.18,WNW,289,14.0,19.0,71,0.00,,,0.00,320,Wunderground v.1.15,2013-03-12 15:56:00,
2013-03-12 10:58:00,34.5,26.1,30.18,West,275,9.0,19.0,71,0.00,,,0.00,330,Wunderground v.1.15,2013-03-12 15:58:00,
2013-03-12 11:00:00,34.6,25.8,30.18,West,263,6.0,19.0,70,0.00,,,0.00,323,Wunderground v.1.15,2013-03-12 16:00:00,
2013-03-12 11:02:00,34.7,26.3,30.19,WNW,289,11.0,11.0,71,0.00,,,0.00,292,Wunderground v.1.15,2013-03-12 16:02:00,
2013-03-12 11:04:00,34.8,26.0,30.19,WNW,285,17.0,19.0,70,0.00,,,0.00,336,Wunderground v.1.15,2013-03-12 16:04:00,
2013-03-12 11:05:00,34.8,26.0,30.19,NW,311,10.0,20.0,70,0.00,,,0.00,352,Wunderground v.1.15,2013-03-12 16:05:00,
2013-03-12 11:07:00,34.7,25.9,30.19,West,279,14.0,24.0,70,0.00,,,0.00,336,Wunderground v.1.15,2013-03-12 16:07:00,
2013-03-12 11:09:00,34.7,25.9,30.19,WNW,292,15.0,24.0,70,0.00,,,0.00,380,Wunderground v.1.15,2013-03-12 16:09:00,
2013-03-12 11:11:00,34.8,26.0,30.19,WNW,291,11.0,11.0,70,0.00,,,0.00,468,Wunderground v.1.15,2013-03-12 16:11:00,
2013-03-12 11:12:00,35.0,26.2,30.19,NW,306,8.0,18.0,70,0.00,,,0.00,468,Wunderground v.1.15,2013-03-12 16:12:00,
2013-03-12 11:13:00,35.0,26.2,30.19,NW,316,9.0,18.0,70,0.00,,,0.00,468,Wunderground v.1.15,2013-03-12 16:13:00,
2013-03-12 11:14:00,35.0,25.9,30.19,WNW,298,11.0,19.0,69,0.00,,,0.00,438,Wunderground v.1.15,2013-03-12 16:14:00,
2013-03-12 11:16:00,35.0,25.9,30.19,WSW,254,10.0,23.0,69,0.00,,,0.00,408,Wunderground v.1.15,2013-03-12 16:16:00,
2013-03-12 11:17:00,34.9,25.8,30.19,WNW,300,8.0,23.0,69,0.00,,,0.00,380,Wunderground v.1.15,2013-03-12 16:17:00,
2013-03-12 11:18:00,35.0,25.9,30.19,West,269,6.0,23.0,69,0.00,,,0.00,380,Wunderground v.1.15,2013-03-12 16:18:00,
2013-03-12 11:20:00,35.0,26.2,30.19,NW,324,10.0,11.0,70,0.00,,,0.00,353,Wunderground v.1.15,2013-03-12 16:20:00,
2013-03-12 11:22:00,35.0,26.2,30.19,West,279,10.0,15.0,70,0.00,,,0.00,359,Wunderground v.1.15,2013-03-12 16:22:00,
2013-03-12 11:23:00,35.0,26.2,30.19,WNW,301,7.0,15.0,70,0.00,,,0.00,359,Wunderground v.1.15,2013-03-12 16:23:00,
2013-03-12 11:25:00,35.0,26.5,30.19,WNW,296,8.0,16.0,71,0.00,,,0.00,346,Wunderground v.1.15,2013-03-12 16:25:00,
2013-03-12 11:28:00,34.8,26.0,30.19,NW,320,14.0,17.0,70,0.00,,,0.00,432,Wunderground v.1.15,2013-03-12 16:28:00,
2013-03-12 11:30:00,34.9,26.4,30.20,WNW,295,17.0,22.0,71,0.00,,,0.00,427,Wunderground v.1.15,2013-03-12 16:30:00,
2013-03-12 11:33:00,34.9,26.1,30.20,WSW,248,9.0,23.0,70,0.00,,,0.00,417,Wunderground v.1.15,2013-03-12 16:33:00,
2013-03-12 11:34:00,34.9,26.1,30.20,WNW,301,11.0,23.0,70,0.00,,,0.00,417,Wunderground v.1.15,2013-03-12 16:34:00,
2013-03-12 11:36:00,34.8,26.0,30.20,NW,321,17.0,23.0,70,0.00,,,0.00,432,Wunderground v.1.15,2013-03-12 16:36:00,
2013-03-12 11:39:00,34.7,25.9,30.20,WSW,254,16.0,23.0,70,0.00,,,0.00,489,Wunderground v.1.15,2013-03-12 16:39:00,
2013-03-12 11:42:00,34.7,25.9,30.20,WNW,297,6.0,14.0,70,0.00,,,0.00,410,Wunderground v.1.15,2013-03-12 16:42:00,
2013-03-12 11:44:00,34.9,26.4,30.20,West,273,12.0,18.0,71,0.00,,,0.00,367,Wunderground v.1.15,2013-03-12 16:44:00,
2013-03-12 11:45:00,34.9,26.1,30.20,NW,304,9.0,18.0,70,0.00,,,0.00,359,Wunderground v.1.15,2013-03-12 16:45:00,
2013-03-12 11:47:00,35.0,26.2,30.20,WNW,283,18.0,18.0,70,0.00,,,0.00,359,Wunderground v.1.15,2013-03-12 16:47:00,
2013-03-12 11:49:00,35.0,25.9,30.20,West,268,7.0,21.0,69,0.00,,,0.00,454,Wunderground v.1.15,2013-03-12 16:49:00,
2013-03-12 11:50:00,35.0,25.9,30.20,NW,324,11.0,11.0,69,0.00,,,0.00,383,Wunderground v.1.15,2013-03-12 16:50:00,
2013-03-12 11:53:00,35.1,26.3,30.20,WNW,282,8.0,20.0,70,0.00,,,0.00,373,Wunderground v.1.15,2013-03-12 16:53:00,
2013-03-12 11:54:00,35.1,26.3,30.20,WNW,297,6.0,23.0,70,0.00,,,0.00,413,Wunderground v.1.15,2013-03-12 16:54:00,
2013-03-12 11:55:00,35.1,26.3,30.20,NW,325,24.0,24.0,70,0.00,,,0.00,394,Wunderground v.1.15,2013-03-12 16:55:00,
2013-03-12 11:58:00,34.9,25.8,30.21,West,277,16.0,24.0,69,0.00,,,0.00,387,Wunderground v.1.15,2013-03-12 16:58:00,
2013-03-12 12:00:00,34.8,25.7,30.21,WNW,295,11.0,21.0,69,0.00,,,0.00,420,Wunderground v.1.15,2013-03-12 17:00:00,
2013-03-12 12:01:00,34.8,25.7,30.21,NNW,338,10.0,21.0,69,0.00,,,0.00,429,Wunderground v.1.15,2013-03-12 17:01:00,
2013-03-12 12:03:00,34.8,25.7,30.20,NW,312,9.0,21.0,69,0.00,,,0.00,410,Wunderground v.1.15,2013-03-12 17:03:00,
2013-03-12 12:05:00,34.9,26.1,30.21,NW,304,14.0,21.0,70,0.00,,,0.00,418,Wunderground v.1.15,2013-03-12 17:05:00,
2013-03-12 12:06:00,34.9,26.1,30.21,WNW,301,8.0,21.0,70,0.00,,,0.00,410,Wunderground v.1.15,2013-03-12 17:06:00,
2013-03-12 12:07:00,34.9,26.1,30.21,WNW,286,12.0,21.0,70,0.00,,,0.00,369,Wunderground v.1.15,2013-03-12 17:07:00,
2013-03-12 12:10:00,34.8,26.0,30.21,WNW,303,8.0,15.0,70,0.00,,,0.00,355,Wunderground v.1.15,2013-03-12 17:10:00,
2013-03-12 12:12:00,34.8,26.0,30.21,WNW,289,5.0,15.0,70,0.00,,,0.00,434,Wunderground v.1.15,2013-03-12 17:12:00,
2013-03-12 12:16:00,35.2,26.7,30.21,West,281,21.0,21.0,71,0.00,,,0.00,434,Wunderground v.1.15,2013-03-12 17:16:00,
2013-03-12 12:17:00,35.1,26.3,30.21,WNW,291,19.0,21.0,70,0.00,,,0.00,434,Wunderground v.1.15,2013-03-12 17:17:00,
2013-03-12 12:18:00,35.1,25.9,30.21,WNW,289,9.0,24.0,69,0.00,,,0.00,468,Wunderground v.1.15,2013-03-12 17:18:00,
2013-03-12 12:22:00,35.0,26.2,30.21,West,272,10.0,16.0,70,0.00,,,0.00,455,Wunderground v.1.15,2013-03-12 17:22:00,
2013-03-12 12:23:00,35.0,26.2,30.21,WNW,294,5.0,16.0,70,0.00,,,0.00,455,Wunderground v.1.15,2013-03-12 17:23:00,
2013-03-12 12:28:00,34.8,26.0,30.22,WNW,284,9.0,22.0,70,0.00,,,0.00,446,Wunderground v.1.15,2013-03-12 17:28:00,
2013-03-12 12:33:00,34.9,25.8,30.22,WNW,298,11.0,20.0,69,0.00,,,0.00,1011,Wunderground v.1.15,2013-03-12 17:33:00,
2013-03-12 12:34:00,34.9,25.8,30.22,WNW,295,15.0,20.0,69,0.00,,,0.00,1011,Wunderground v.1.15,2013-03-12 17:34:00,
2013-03-12 12:39:00,35.5,26.0,30.22,WNW,287,23.0,23.0,68,0.00,,,0.00,464,Wunderground v.1.15,2013-03-12 17:39:00,
2013-03-12 12:40:00,35.5,25.6,30.22,WNW,287,9.0,23.0,67,0.00,,,0.00,464,Wunderground v.1.15,2013-03-12 17:40:00,
2013-03-12 12:44:00,34.9,25.4,30.22,West,278,8.0,18.0,68,0.00,,,0.00,499,Wunderground v.1.15,2013-03-12 17:44:00,
2013-03-12 12:45:00,35.0,25.9,30.22,NW,312,14.0,18.0,69,0.00,,,0.00,499,Wunderground v.1.15,2013-03-12 17:45:00,
2013-03-12 12:50:00,35.0,26.2,30.22,WNW,296,10.0,18.0,70,0.00,,,0.00,649,Wunderground v.1.15,2013-03-12 17:50:00,
2013-03-12 12:55:00,34.4,25.6,30.22,WNW,296,7.0,27.0,70,0.00,,,0.00,381,Wunderground v.1.15,2013-03-12 17:55:00,
2013-03-12 13:01:00,35.1,26.3,30.22,West,281,18.0,18.0,70,0.00,,,0.00,577,Wunderground v.1.15,2013-03-12 18:01:00,
2013-03-12 13:02:00,35.1,25.6,30.23,West,277,13.0,18.0,68,0.00,,,0.00,617,Wunderground v.1.15,2013-03-12 18:02:00,
2013-03-12 13:06:00,35.0,25.9,30.23,WNW,294,11.0,20.0,69,0.00,,,0.00,455,Wunderground v.1.15,2013-03-12 18:06:00,
2013-03-12 13:07:00,35.0,25.5,30.23,WNW,283,17.0,20.0,68,0.00,,,0.00,408,Wunderground v.1.15,2013-03-12 18:07:00,
2013-03-12 13:11:00,34.7,25.6,30.23,West,262,6.0,13.0,69,0.00,,,0.00,504,Wunderground v.1.15,2013-03-12 18:11:00,
2013-03-12 13:12:00,34.8,25.7,30.23,WNW,290,14.0,14.0,69,0.00,,,0.00,446,Wunderground v.1.15,2013-03-12 18:12:00,
2013-03-12 13:13:00,34.8,25.7,30.23,NW,312,10.0,15.0,69,0.00,,,0.00,446,Wunderground v.1.15,2013-03-12 18:13:00,
2013-03-12 13:17:00,34.7,25.6,30.23,WNW,290,8.0,19.0,69,0.00,,,0.00,287,Wunderground v.1.15,2013-03-12 18:17:00,
2013-03-12 13:18:00,34.6,25.5,30.23,West,277,10.0,19.0,69,0.00,,,0.00,250,Wunderground v.1.15,2013-03-12 18:18:00,
2013-03-12 13:23:00,34.4,26.0,30.23,WSW,244,10.0,19.0,71,0.00,,,0.00,209,Wunderground v.1.15,2013-03-12 18:23:00,
2013-03-12 13:28:00,34.2,25.8,30.23,WNW,288,4.0,20.0,71,0.00,,,0.00,269,Wunderground v.1.15,2013-03-12 18:28:00,
2013-03-12 13:33:00,34.0,25.9,30.23,WNW,283,16.0,18.0,72,0.00,,,0.00,332,Wunderground v.1.15,2013-03-12 18:33:00,
2013-03-12 13:34:00,34.0,26.3,30.23,WNW,302,14.0,18.0,73,0.00,,,0.00,401,Wunderground v.1.15,2013-03-12 18:34:00,
2013-03-12 13:38:00,34.2,25.4,30.23,WNW,283,18.0,26.0,70,0.00,,,0.00,577,Wunderground v.1.15,2013-03-12 18:38:00,
2013-03-12 13:39:00,34.3,25.5,30.23,West,269,12.0,26.0,70,0.00,,,0.00,577,Wunderground v.1.15,2013-03-12 18:39:00,
2013-03-12 13:44:00,34.8,25.3,30.23,NW,323,7.0,20.0,68,0.00,,,0.00,536,Wunderground v.1.15,2013-03-12 18:44:00,
2013-03-12 13:45:00,34.8,25.3,30.23,West,268,15.0,20.0,68,0.00,,,0.00,536,Wunderground v.1.15,2013-03-12 18:45:00,
2013-03-12 13:50:00,34.6,25.1,30.23,West,273,4.0,24.0,68,0.00,,,0.00,429,Wunderground v.1.15,2013-03-12 18:50:00,
2013-03-12 13:55:00,34.5,24.7,30.24,NW,317,14.0,21.0,67,0.00,,,0.00,399,Wunderground v.1.15,2013-03-12 18:55:00,
2013-03-12 13:56:00,34.4,24.9,30.23,West,276,14.0,21.0,68,0.00,,,0.00,376,Wunderground v.1.15,2013-03-12 18:56:00,
2013-03-12 13:57:00,34.3,24.5,30.23,West,272,28.0,28.0,67,0.00,,,0.00,376,Wunderground v.1.15,2013-03-12 18:57:00,
2013-03-12 14:00:00,33.9,24.4,30.24,NW,319,8.0,14.0,68,0.00,,,0.00,322,Wunderground v.1.15,2013-03-12 19:00:00,
2013-03-12 14:02:00,33.9,24.8,30.24,NW,318,10.0,17.0,69,0.00,,,0.00,301,Wunderground v.1.15,2013-03-12 19:02:00,
2013-03-12 14:06:00,33.8,24.7,30.24,WNW,282,8.0,20.0,69,0.00,,,0.00,295,Wunderground v.1.15,2013-03-12 19:06:00,
2013-03-12 14:07:00,33.7,24.6,30.24,NW,320,11.0,20.0,69,0.00,,,0.00,301,Wunderground v.1.15,2013-03-12 19:07:00,
2013-03-12 14:08:00,33.7,24.6,30.24,West,277,19.0,20.0,69,0.00,,,0.00,301,Wunderground v.1.15,2013-03-12 19:08:00,
2013-03-12 14:12:00,33.5,24.8,30.24,WNW,288,7.0,19.0,70,0.00,,,0.00,271,Wunderground v.1.15,2013-03-12 19:12:00,
2013-03-12 14:13:00,33.5,24.8,30.24,WNW,296,13.0,19.0,70,0.00,,,0.00,264,Wunderground v.1.15,2013-03-12 19:13:00,
2013-03-12 14:17:00,33.4,24.3,30.24,NW,310,13.0,26.0,69,0.00,,,0.00,264,Wunderground v.1.15,2013-03-12 19:17:00,
2013-03-12 14:18:00,33.3,24.6,30.24,NW,304,10.0,27.0,70,0.00,,,0.00,253,Wunderground v.1.15,2013-03-12 19:18:00,
2013-03-12 14:22:00,33.1,24.4,30.24,West,265,16.0,21.0,70,0.00,,,0.00,255,Wunderground v.1.15,2013-03-12 19:22:00,
2013-03-12 14:23:00,33.0,24.3,30.24,WNW,298,17.0,21.0,70,0.00,,,0.00,246,Wunderground v.1.15,2013-03-12 19:23:00,
2013-03-12 14:24:00,33.0,24.6,30.24,West,262,12.0,21.0,71,0.00,,,0.00,246,Wunderground v.1.15,2013-03-12 19:24:00,
2013-03-12 14:27:00,33.0,24.6,30.25,WNW,298,12.0,28.0,71,0.00,,,0.00,230,Wunderground v.1.15,2013-03-12 19:27:00,
2013-03-12 14:28:00,33.0,24.3,30.25,West,273,7.0,28.0,70,0.00,,,0.00,213,Wunderground v.1.15,2013-03-12 19:28:00,
2013-03-12 14:29:00,32.9,24.2,30.25,NNW,333,14.0,28.0,70,0.00,,,0.00,213,Wunderground v.1.15,2013-03-12 19:29:00,
2013-03-12 14:32:00,33.0,24.6,30.25,NW,313,10.0,25.0,71,0.00,,,0.00,181,Wunderground v.1.15,2013-03-12 19:32:00,
2013-03-12 14:33:00,32.9,24.5,30.24,WNW,291,15.0,25.0,71,0.00,,,0.00,181,Wunderground v.1.15,2013-03-12 19:33:00,
2013-03-12 14:35:00,32.9,24.5,30.25,WNW,299,13.0,25.0,71,0.00,,,0.00,183,Wunderground v.1.15,2013-03-12 19:35:00,
2013-03-12 14:37:00,32.9,24.5,30.25,NW,315,9.0,25.0,71,0.00,,,0.00,185,Wunderground v.1.15,2013-03-12 19:37:00,
2013-03-12 14:38:00,32.9,24.5,30.25,WNW,300,11.0,25.0,71,0.00,,,0.00,188,Wunderground v.1.15,2013-03-12 19:38:00,
2013-03-12 14:40:00,32.9,24.5,30.25,WNW,297,6.0,12.0,71,0.00,,,0.00,192,Wunderground v.1.15,2013-03-12 19:40:00,
2013-03-12 14:42:00,32.9,24.5,30.25,WNW,282,9.0,12.0,71,0.00,,,0.00,204,Wunderground v.1.15,2013-03-12 19:42:00,
2013-03-12 14:44:00,32.8,24.4,30.25,WNW,292,16.0,16.0,71,0.00,,,0.00,193,Wunderground v.1.15,2013-03-12 19:44:00,
2013-03-12 14:45:00,32.8,24.4,30.25,NW,306,13.0,22.0,71,0.00,,,0.00,193,Wunderground v.1.15,2013-03-12 19:45:00,
2013-03-12 14:47:00,32.7,24.3,30.25,WNW,291,15.0,22.0,71,0.00,,,0.00,195,Wunderground v.1.15,2013-03-12 19:47:00,
2013-03-12 14:49:00,32.8,24.4,30.25,WNW,299,8.0,22.0,71,0.00,,,0.00,216,Wunderground v.1.15,2013-03-12 19:49:00,
2013-03-12 14:52:00,32.9,24.9,30.25,WNW,285,14.0,18.0,72,0.00,,,0.00,225,Wunderground v.1.15,2013-03-12 19:52:00,
2013-03-12 14:53:00,33.0,25.0,30.25,WNW,291,8.0,18.0,72,0.00,,,0.00,232,Wunderground v.1.15,2013-03-12 19:53:00,
2013-03-12 14:55:00,33.0,25.0,30.25,WNW,303,11.0,18.0,72,0.00,,,0.00,265,Wunderground v.1.15,2013-03-12 19:55:00,
2013-03-12 14:57:00,33.0,24.6,30.25,WNW,295,10.0,24.0,71,0.00,,,0.00,274,Wunderground v.1.15,2013-03-12 19:57:00,
2013-03-12 14:58:00,33.0,24.6,30.25,WNW,292,10.0,24.0,71,0.00,,,0.00,274,Wunderground v.1.15,2013-03-12 19:58:00,
2013-03-12 15:00:00,33.0,24.3,30.25,WNW,282,7.0,11.0,70,0.00,,,0.00,274,Wunderground v.1.15,2013-03-12 20:00:00,
2013-03-12 15:03:00,33.1,24.4,30.25,NW,304,9.0,21.0,70,0.00,,,0.00,246,Wunderground v.1.15,2013-03-12 20:03:00,
2013-03-12 15:05:00,33.0,23.9,30.25,NNW,332,7.0,21.0,69,0.00,,,0.00,237,Wunderground v.1.15,2013-03-12 20:05:00,
2013-03-12 15:08:00,32.9,23.8,30.25,WNW,297,7.0,29.0,69,0.00,,,0.00,251,Wunderground v.1.15,2013-03-12 20:08:00,
2013-03-12 15:09:00,32.9,23.8,30.25,WNW,296,8.0,29.0,69,0.00,,,0.00,251,Wunderground v.1.15,2013-03-12 20:09:00,
2013-03-12 15:10:00,32.8,23.7,30.25,WNW,301,9.0,15.0,69,0.00,,,0.00,265,Wunderground v.1.15,2013-03-12 20:10:00,
2013-03-12 15:14:00,32.8,23.7,30.25,WNW,298,7.0,17.0,69,0.00,,,0.00,246,Wunderground v.1.15,2013-03-12 20:14:00,
2013-03-12 15:16:00,32.8,24.1,30.25,West,277,14.0,22.0,70,0.00,,,0.00,251,Wunderground v.1.15,2013-03-12 20:16:00,
2013-03-12 15:17:00,32.8,24.1,30.25,West,277,11.0,22.0,70,0.00,,,0.00,251,Wunderground v.1.15,2013-03-12 20:17:00,
2013-03-12 15:19:00,32.8,24.1,30.25,West,279,7.0,22.0,70,0.00,,,0.00,267,Wunderground v.1.15,2013-03-12 20:19:00,
2013-03-12 15:20:00,32.8,24.1,30.25,West,278,10.0,12.0,70,0.00,,,0.00,267,Wunderground v.1.15,2013-03-12 20:20:00,
2013-03-12 15:22:00,32.9,24.2,30.25,West,270,15.0,17.0,70,0.00,,,0.00,258,Wunderground v.1.15,2013-03-12 20:22:00,
2013-03-12 15:24:00,32.9,24.2,30.25,West,260,14.0,17.0,70,0.00,,,0.00,265,Wunderground v.1.15,2013-03-12 20:24:00,
2013-03-12 15:26:00,32.9,24.2,30.25,WNW,296,14.0,20.0,70,0.00,,,0.00,288,Wunderground v.1.15,2013-03-12 20:26:00,
2013-03-12 15:28:00,32.9,24.2,30.25,WNW,287,9.0,20.0,70,0.00,,,0.00,304,Wunderground v.1.15,2013-03-12 20:28:00,
2013-03-12 15:29:00,33.0,24.3,30.25,NW,323,10.0,20.0,70,0.00,,,0.00,323,Wunderground v.1.15,2013-03-12 20:29:00,
2013-03-12 15:32:00,33.0,24.6,30.25,WNW,296,11.0,15.0,71,0.00,,,0.00,330,Wunderground v.1.15,2013-03-12 20:32:00,
2013-03-12 15:33:00,33.0,23.9,30.25,West,279,10.0,21.0,69,0.00,,,0.00,318,Wunderground v.1.15,2013-03-12 20:33:00,
2013-03-12 15:35:00,33.0,23.9,30.25,WNW,286,16.0,21.0,69,0.00,,,0.00,315,Wunderground v.1.15,2013-03-12 20:35:00,
2013-03-12 15:37:00,33.1,24.0,30.25,West,270,12.0,21.0,69,0.00,,,0.00,264,Wunderground v.1.15,2013-03-12 20:37:00,
2013-03-12 15:38:00,33.2,24.1,30.25,WNW,298,8.0,21.0,69,0.00,,,0.00,237,Wunderground v.1.15,2013-03-12 20:38:00,
2013-03-12 15:39:00,33.2,24.1,30.25,WNW,295,9.0,21.0,69,0.00,,,0.00,237,Wunderground v.1.15,2013-03-12 20:39:00,
2013-03-12 15:41:00,33.2,23.8,30.25,WNW,296,18.0,18.0,68,0.00,,,0.00,234,Wunderground v.1.15,2013-03-12 20:41:00,
2013-03-12 15:43:00,33.2,23.8,30.26,WNW,302,13.0,18.0,68,0.00,,,0.00,260,Wunderground v.1.15,2013-03-12 20:43:00,
2013-03-12 15:44:00,33.1,24.0,30.25,West,274,10.0,22.0,69,0.00,,,0.00,271,Wunderground v.1.15,2013-03-12 20:44:00,
2013-03-12 15:48:00,33.1,24.0,30.26,West,279,11.0,22.0,69,0.00,,,0.00,237,Wunderground v.1.15,2013-03-12 20:48:00,
2013-03-12 15:50:00,33.0,23.9,30.26,NW,305,18.0,18.0,69,0.00,,,0.00,237,Wunderground v.1.15,2013-03-12 20:50:00,
2013-03-12 15:53:00,32.9,23.8,30.26,NNW,327,16.0,18.0,69,0.00,,,0.00,239,Wunderground v.1.15,2013-03-12 20:53:00,
2013-03-12 15:55:00,32.9,23.8,30.26,WNW,285,6.0,18.0,69,0.00,,,0.00,244,Wunderground v.1.15,2013-03-12 20:55:00,
2013-03-12 15:59:00,33.1,24.0,30.26,WNW,289,10.0,18.0,69,0.00,,,0.00,316,Wunderground v.1.15,2013-03-12 20:59:00,
2013-03-12 16:00:00,33.1,24.0,30.26,WNW,291,14.0,20.0,69,0.00,,,0.00,295,Wunderground v.1.15,2013-03-12 21:00:00,
2013-03-12 16:01:00,33.1,23.7,30.26,WNW,289,21.0,21.0,68,0.00,,,0.00,292,Wunderground v.1.15,2013-03-12 21:01:00,
2013-03-12 16:05:00,33.2,23.8,30.26,West,269,10.0,21.0,68,0.00,,,0.00,313,Wunderground v.1.15,2013-03-12 21:05:00,
2013-03-12 16:07:00,33.2,23.8,30.25,NW,306,10.0,21.0,68,0.00,,,0.00,281,Wunderground v.1.15,2013-03-12 21:07:00,
2013-03-12 16:10:00,33.3,24.2,30.26,NW,310,9.0,13.0,69,0.00,,,0.00,276,Wunderground v.1.15,2013-03-12 21:10:00,
2013-03-12 16:11:00,33.3,24.2,30.26,NNW,332,14.0,20.0,69,0.00,,,0.00,265,Wunderground v.1.15,2013-03-12 21:11:00,
2013-03-12 16:12:00,33.3,24.2,30.26,WNW,294,12.0,20.0,69,0.00,,,0.00,260,Wunderground v.1.15,2013-03-12 21:12:00,
2013-03-12 16:13:00,33.3,23.9,30.26,West,281,14.0,20.0,68,0.00,,,0.00,255,Wunderground v.1.15,2013-03-12 21:13:00,
2013-03-12 16:16:00,33.3,23.9,30.26,WNW,288,9.0,20.0,68,0.00,,,0.00,255,Wunderground v.1.15,2013-03-12 21:16:00,
2013-03-12 16:17:00,33.3,23.9,30.26,West,269,12.0,20.0,68,0.00,,,0.00,237,Wunderground v.1.15,2013-03-12 21:17:00,
2013-03-12 16:18:00,33.3,23.9,30.26,NW,305,11.0,20.0,68,0.00,,,0.00,237,Wunderground v.1.15,2013-03-12 21:18:00,
2013-03-12 16:22:00,33.3,23.9,30.26,West,267,6.0,14.0,68,0.00,,,0.00,213,Wunderground v.1.15,2013-03-12 21:22:00,
2013-03-12 16:23:00,33.3,23.9,30.26,NW,326,8.0,14.0,68,0.00,,,0.00,202,Wunderground v.1.15,2013-03-12 21:23:00,
2013-03-12 16:28:00,33.2,23.8,30.26,WNW,302,10.0,15.0,68,0.00,,,0.00,169,Wunderground v.1.15,2013-03-12 21:28:00,
2013-03-12 16:29:00,33.2,23.8,30.26,West,280,8.0,15.0,68,0.00,,,0.00,169,Wunderground v.1.15,2013-03-12 21:29:00,
2013-03-12 16:35:00,33.0,23.9,30.26,WNW,289,17.0,18.0,69,0.00,,,0.00,176,Wunderground v.1.15,2013-03-12 21:35:00,
2013-03-12 16:36:00,33.0,23.9,30.26,NW,304,22.0,22.0,69,0.00,,,0.00,167,Wunderground v.1.15,2013-03-12 21:36:00,
2013-03-12 16:40:00,32.8,23.7,30.26,NW,313,6.0,10.0,69,0.00,,,0.00,135,Wunderground v.1.15,2013-03-12 21:40:00,
2013-03-12 16:41:00,32.8,23.7,30.26,NW,321,7.0,10.0,69,0.00,,,0.00,127,Wunderground v.1.15,2013-03-12 21:41:00,
2013-03-12 16:46:00,32.8,24.1,30.27,WNW,303,14.0,21.0,70,0.00,,,0.00,163,Wunderground v.1.15,2013-03-12 21:46:00,
2013-03-12 16:47:00,32.7,24.0,30.26,WNW,283,9.0,21.0,70,0.00,,,0.00,179,Wunderground v.1.15,2013-03-12 21:47:00,
2013-03-12 16:52:00,32.7,24.0,30.26,WNW,302,9.0,10.0,70,0.00,,,0.00,223,Wunderground v.1.15,2013-03-12 21:52:00,
2013-03-12 16:53:00,32.8,24.4,30.26,West,281,11.0,12.0,71,0.00,,,0.00,232,Wunderground v.1.15,2013-03-12 21:53:00,
2013-03-12 16:57:00,32.9,24.5,30.26,WNW,283,9.0,16.0,71,0.00,,,0.00,209,Wunderground v.1.15,2013-03-12 21:57:00,
2013-03-12 16:58:00,32.9,24.5,30.26,West,269,6.0,16.0,71,0.00,,,0.00,209,Wunderground v.1.15,2013-03-12 21:58:00,
2013-03-12 16:59:00,33.0,24.6,30.27,WNW,300,8.0,16.0,71,0.00,,,0.00,207,Wunderground v.1.15,2013-03-12 21:59:00,
2013-03-12 17:03:00,32.9,24.2,30.26,NW,306,14.0,14.0,70,0.00,,,0.00,190,Wunderground v.1.15,2013-03-12 22:03:00,
2013-03-12 17:05:00,32.9,23.8,30.26,WNW,299,22.0,24.0,69,0.00,,,0.00,195,Wunderground v.1.15,2013-03-12 22:05:00,
2013-03-12 17:09:00,32.7,23.6,30.27,WNW,296,20.0,28.0,69,0.00,,,0.00,183,Wunderground v.1.15,2013-03-12 22:09:00,
2013-03-12 17:12:00,32.6,23.6,30.27,WNW,296,7.0,18.0,69,0.00,,,0.00,167,Wunderground v.1.15,2013-03-12 22:12:00,
2013-03-12 17:14:00,32.6,23.9,30.27,NW,310,15.0,19.0,70,0.00,,,0.00,153,Wunderground v.1.15,2013-03-12 22:14:00,
2013-03-12 17:15:00,32.6,23.6,30.27,NW,309,14.0,19.0,69,0.00,,,0.00,153,Wunderground v.1.15,2013-03-12 22:15:00,
2013-03-12 17:17:00,32.6,23.6,30.27,West,271,15.0,22.0,69,0.00,,,0.00,153,Wunderground v.1.15,2013-03-12 22:17:00,
2013-03-12 17:20:00,32.6,23.6,30.27,WNW,294,12.0,22.0,69,0.00,,,0.00,144,Wunderground v.1.15,2013-03-12 22:20:00,
2013-03-12 17:22:00,32.5,23.1,30.27,NW,314,19.0,24.0,68,0.00,,,0.00,144,Wunderground v.1.15,2013-03-12 22:22:00,
2013-03-12 17:25:00,32.5,23.1,30.27,West,279,10.0,24.0,68,0.00,,,0.00,155,Wunderground v.1.15,2013-03-12 22:25:00,
2013-03-12 17:27:00,32.5,23.1,30.27,WNW,294,12.0,24.0,68,0.00,,,0.00,155,Wunderground v.1.15,2013-03-12 22:27:00,
2013-03-12 17:31:00,32.4,23.4,30.27,WNW,283,9.0,14.0,69,0.00,,,0.00,165,Wunderground v.1.15,2013-03-12 22:31:00,
2013-03-12 17:32:00,32.4,23.4,30.27,West,277,11.0,14.0,69,0.00,,,0.00,158,Wunderground v.1.15,2013-03-12 22:32:00,
2013-03-12 17:33:00,32.5,23.5,30.27,West,281,12.0,21.0,69,0.00,,,0.00,148,Wunderground v.1.15,2013-03-12 22:33:00,
2013-03-12 17:36:00,32.4,23.4,30.27,West,277,15.0,21.0,69,0.00,,,0.00,135,Wunderground v.1.15,2013-03-12 22:36:00,
2013-03-12 17:37:00,32.4,23.4,30.27,NW,314,8.0,21.0,69,0.00,,,0.00,135,Wunderground v.1.15,2013-03-12 22:37:00,
2013-03-12 17:38:00,32.4,23.4,30.27,West,278,7.0,21.0,69,0.00,,,0.00,134,Wunderground v.1.15,2013-03-12 22:38:00,
2013-03-12 17:42:00,32.3,23.6,30.28,WNW,296,10.0,15.0,70,0.00,,,0.00,128,Wunderground v.1.15,2013-03-12 22:42:00,
2013-03-12 17:44:00,32.3,23.6,30.27,West,278,6.0,20.0,70,0.00,,,0.00,114,Wunderground v.1.15,2013-03-12 22:44:00,
2013-03-12 17:48:00,32.3,23.3,30.28,NW,323,10.0,20.0,69,0.00,,,0.00,121,Wunderground v.1.15,2013-03-12 22:48:00,
2013-03-12 17:49:00,32.2,23.2,30.28,West,277,13.0,20.0,69,0.00,,,0.00,114,Wunderground v.1.15,2013-03-12 22:49:00,
2013-03-12 17:53:00,32.1,23.1,30.28,NNW,335,11.0,21.0,69,0.00,,,0.00,105,Wunderground v.1.15,2013-03-12 22:53:00,
2013-03-12 17:54:00,32.1,23.1,30.28,WNW,302,10.0,21.0,69,0.00,,,0.00,100,Wunderground v.1.15,2013-03-12 22:54:00,
2013-03-12 17:55:00,32.1,23.1,30.28,WNW,294,10.0,21.0,69,0.00,,,0.00,93,Wunderground v.1.15,2013-03-12 22:55:00,
2013-03-12 17:57:00,32.1,23.4,30.28,West,263,4.0,21.0,70,0.00,,,0.00,91,Wunderground v.1.15,2013-03-12 22:57:00,
2013-03-12 17:58:00,32.1,23.4,30.28,West,278,6.0,21.0,70,0.00,,,0.00,86,Wunderground v.1.15,2013-03-12 22:58:00,
2013-03-12 17:59:00,32.1,23.4,30.28,NNW,327,12.0,21.0,70,0.00,,,0.00,88,Wunderground v.1.15,2013-03-12 22:59:00,
2013-03-12 18:00:00,32.1,23.4,30.28,WSW,254,12.0,12.0,70,0.00,,,0.00,88,Wunderground v.1.15,2013-03-12 23:00:00,
2013-03-12 18:02:00,32.1,23.4,30.28,West,262,8.0,14.0,70,0.00,,,0.00,91,Wunderground v.1.15,2013-03-12 23:02:00,
2013-03-12 18:04:00,32.1,23.4,30.28,WNW,290,16.0,18.0,70,0.00,,,0.00,88,Wunderground v.1.15,2013-03-12 23:04:00,
2013-03-12 18:05:00,32.1,23.4,30.28,WNW,296,7.0,23.0,70,0.00,,,0.00,84,Wunderground v.1.15,2013-03-12 23:05:00,
2013-03-12 18:06:00,32.0,23.3,30.28,West,269,16.0,23.0,70,0.00,,,0.00,81,Wunderground v.1.15,2013-03-12 23:06:00,
2013-03-12 18:07:00,32.0,23.3,30.28,West,273,13.0,23.0,70,0.00,,,0.00,81,Wunderground v.1.15,2013-03-12 23:07:00,
2013-03-12 18:09:00,31.9,23.2,30.28,WNW,283,8.0,23.0,70,0.00,,,0.00,83,Wunderground v.1.15,2013-03-12 23:09:00,
2013-03-12 18:10:00,31.9,23.2,30.28,NNW,345,19.0,19.0,70,0.00,,,0.00,81,Wunderground v.1.15,2013-03-12 23:10:00,
2013-03-12 18:11:00,31.9,23.2,30.28,WNW,289,10.0,19.0,70,0.00,,,0.00,81,Wunderground v.1.15,2013-03-12 23:11:00,
2013-03-12 18:12:00,31.8,23.1,30.28,West,279,12.0,22.0,70,0.00,,,0.00,77,Wunderground v.1.15,2013-03-12 23:12:00,
2013-03-12 18:14:00,31.8,23.1,30.28,WNW,297,20.0,24.0,70,0.00,,,0.00,79,Wunderground v.1.15,2013-03-12 23:14:00,
2013-03-12 18:15:00,31.7,23.0,30.28,WNW,289,10.0,24.0,70,0.00,,,0.00,79,Wunderground v.1.15,2013-03-12 23:15:00,
2013-03-12 18:16:00,31.7,23.0,30.28,WNW,287,11.0,24.0,70,0.00,,,0.00,76,Wunderground v.1.15,2013-03-12 23:16:00,
2013-03-12 18:17:00,31.7,23.0,30.28,WNW,285,15.0,24.0,70,0.00,,,0.00,77,Wunderground v.1.15,2013-03-12 23:17:00,
2013-03-12 18:20:00,31.7,23.0,30.28,NW,320,9.0,14.0,70,0.00,,,0.00,76,Wunderground v.1.15,2013-03-12 23:20:00,
2013-03-12 18:21:00,31.6,22.9,30.28,West,280,7.0,15.0,70,0.00,,,0.00,72,Wunderground v.1.15,2013-03-12 23:21:00,
2013-03-12 18:22:00,31.6,22.9,30.28,West,278,8.0,15.0,70,0.00,,,0.00,69,Wunderground v.1.15,2013-03-12 23:22:00,
2013-03-12 18:23:00,31.6,22.9,30.28,WNW,303,12.0,15.0,70,0.00,,,0.00,65,Wunderground v.1.15,2013-03-12 23:23:00,
2013-03-12 18:25:00,31.6,22.9,30.28,West,269,6.0,25.0,70,0.00,,,0.00,65,Wunderground v.1.15,2013-03-12 23:25:00,
2013-03-12 18:27:00,31.5,22.8,30.28,West,280,12.0,25.0,70,0.00,,,0.00,63,Wunderground v.1.15,2013-03-12 23:27:00,
2013-03-12 18:29:00,31.5,22.8,30.28,West,281,11.0,25.0,70,0.00,,,0.00,69,Wunderground v.1.15,2013-03-12 23:29:00,
2013-03-12 18:32:00,31.5,22.8,30.28,NW,304,16.0,16.0,70,0.00,,,0.00,62,Wunderground v.1.15,2013-03-12 23:32:00,
2013-03-12 18:33:00,31.5,22.8,30.28,West,274,10.0,16.0,70,0.00,,,0.00,60,Wunderground v.1.15,2013-03-12 23:33:00,
2013-03-12 18:34:00,31.5,22.5,30.28,WNW,286,9.0,17.0,69,0.00,,,0.00,56,Wunderground v.1.15,2013-03-12 23:34:00,
2013-03-12 18:37:00,31.5,22.8,30.28,WNW,283,12.0,17.0,70,0.00,,,0.00,51,Wunderground v.1.15,2013-03-12 23:37:00,
2013-03-12 18:38:00,31.4,22.7,30.28,WNW,290,18.0,23.0,70,0.00,,,0.00,51,Wunderground v.1.15,2013-03-12 23:38:00,
2013-03-12 18:39:00,31.4,22.7,30.28,West,271,15.0,24.0,70,0.00,,,0.00,49,Wunderground v.1.15,2013-03-12 23:39:00,
2013-03-12 18:42:00,31.4,22.4,30.28,NW,306,16.0,23.0,69,0.00,,,0.00,46,Wunderground v.1.15,2013-03-12 23:42:00,
2013-03-12 18:43:00,31.4,22.4,30.28,West,278,11.0,23.0,69,0.00,,,0.00,44,Wunderground v.1.15,2013-03-12 23:43:00,
2013-03-12 18:45:00,31.3,22.3,30.28,NW,306,6.0,23.0,69,0.00,,,0.00,44,Wunderground v.1.15,2013-03-12 23:45:00,
2013-03-12 18:48:00,31.3,22.3,30.28,WNW,301,6.0,23.0,69,0.00,,,0.00,37,Wunderground v.1.15,2013-03-12 23:48:00,
2013-03-12 18:50:00,31.3,22.3,30.28,NNW,328,8.0,14.0,69,0.00,,,0.00,33,Wunderground v.1.15,2013-03-12 23:50:00,
2013-03-12 18:53:00,31.2,22.2,30.28,West,273,18.0,18.0,69,0.00,,,0.00,28,Wunderground v.1.15,2013-03-12 23:53:00,
2013-03-12 18:54:00,31.2,22.2,30.28,NW,318,13.0,18.0,69,0.00,,,0.00,25,Wunderground v.1.15,2013-03-12 23:54:00,
2013-03-12 18:55:00,31.2,22.2,30.29,WNW,301,9.0,22.0,69,0.00,,,0.00,25,Wunderground v.1.15,2013-03-12 23:55:00,
2013-03-12 18:59:00,31.2,22.2,30.29,NNW,330,10.0,22.0,69,0.00,,,0.00,21,Wunderground v.1.15,2013-03-12 23:59:00,
2013-03-12 19:02:00,31.1,22.1,30.29,WNW,294,9.0,14.0,69,0.00,,,0.00,19,Wunderground v.1.15,2013-03-13 00:02:00,
2013-03-12 19:04:00,31.1,22.5,30.29,NW,323,11.0,17.0,70,0.00,,,0.00,19,Wunderground v.1.15,2013-03-13 00:04:00,
2013-03-12 19:05:00,31.1,22.5,30.29,WNW,289,7.0,17.0,70,0.00,,,0.00,18,Wunderground v.1.15,2013-03-13 00:05:00,
2013-03-12 19:07:00,31.1,22.5,30.29,WNW,291,8.0,17.0,70,0.00,,,0.00,18,Wunderground v.1.15,2013-03-13 00:07:00,
2013-03-12 19:09:00,31.0,22.4,30.30,West,269,11.0,17.0,70,0.00,,,0.00,12,Wunderground v.1.15,2013-03-13 00:09:00,
2013-03-12 19:10:00,31.0,22.4,30.29,WNW,296,13.0,13.0,70,0.00,,,0.00,12,Wunderground v.1.15,2013-03-13 00:10:00,
2013-03-12 19:13:00,30.9,22.3,30.29,WNW,299,8.0,17.0,70,0.00,,,0.00,9,Wunderground v.1.15,2013-03-13 00:13:00,
2013-03-12 19:15:00,30.9,22.3,30.29,NW,306,8.0,17.0,70,0.00,,,0.00,9,Wunderground v.1.15,2013-03-13 00:15:00,
2013-03-12 19:16:00,30.9,22.3,30.29,West,268,9.0,17.0,70,0.00,,,0.00,7,Wunderground v.1.15,2013-03-13 00:16:00,
2013-03-12 19:18:00,30.8,22.2,30.29,West,276,8.0,17.0,70,0.00,,,0.00,7,Wunderground v.1.15,2013-03-13 00:18:00,
2013-03-12 19:21:00,30.7,22.1,30.29,NNW,329,14.0,23.0,70,0.00,,,0.00,5,Wunderground v.1.15,2013-03-13 00:21:00,
2013-03-12 19:23:00,30.7,21.7,30.30,WNW,299,12.0,23.0,69,0.00,,,0.00,5,Wunderground v.1.15,2013-03-13 00:23:00,
2013-03-12 19:26:00,30.7,21.7,30.29,WNW,299,12.0,23.0,69,0.00,,,0.00,5,Wunderground v.1.15,2013-03-13 00:26:00,
2013-03-12 19:27:00,30.6,21.6,30.30,WNW,295,11.0,23.0,69,0.00,,,0.00,5,Wunderground v.1.15,2013-03-13 00:27:00,
2013-03-12 19:28:00,30.6,21.6,30.29,WNW,282,8.0,23.0,69,0.00,,,0.00,5,Wunderground v.1.15,2013-03-13 00:28:00,
2013-03-12 19:31:00,30.6,21.6,30.30,WSW,256,7.0,18.0,69,0.00,,,0.00,0,Wunderground v.1.15,2013-03-13 00:31:00,
2013-03-12 19:32:00,30.6,21.6,30.30,WNW,299,13.0,18.0,69,0.00,,,0.00,0,Wunderground v.1.15,2013-03-13 00:32:00,
2013-03-12 19:33:00,30.6,22.0,30.30,WSW,249,7.0,19.0,70,0.00,,,0.00,0,Wunderground v.1.15,2013-03-13 00:33:00,
2013-03-12 19:34:00,30.6,22.0,30.30,West,276,11.0,19.0,70,0.00,,,0.00,0,Wunderground v.1.15,2013-03-13 00:34:00,
2013-03-12 19:37:00,30.5,21.9,30.30,NNW,327,12.0,19.0,70,0.00,,,0.00,0,Wunderground v.1.15,2013-03-13 00:37:00,
2013-03-12 19:39:00,30.5,21.9,30.30,NW,314,4.0,19.0,70,0.00,,,0.00,0,Wunderground v.1.15,2013-03-13 00:39:00,
2013-03-12 19:42:00,30.5,22.2,30.30,WNW,289,10.0,15.0,71,0.00,,,0.00,0,Wunderground v.1.15,2013-03-13 00:42:00,
2013-03-12 19:44:00,30.4,22.1,30.30,NW,306,14.0,21.0,71,0.00,,,0.00,0,Wunderground v.1.15,2013-03-13 00:44:00,
2013-03-12 19:45:00,30.4,21.8,30.30,WNW,294,11.0,21.0,70,0.00,,,0.00,0,Wunderground v.1.15,2013-03-13 00:45:00,
2013-03-12 19:47:00,30.4,22.1,30.30,WNW,301,15.0,21.0,71,0.00,,,0.00,0,Wunderground v.1.15,2013-03-13 00:47:00,
2013-03-12 19:48:00,30.4,22.1,30.30,NNW,327,19.0,22.0,71,0.00,,,0.00,0,Wunderground v.1.15,2013-03-13 00:48:00,
2013-03-12 19:49:00,30.4,22.1,30.30,NW,316,10.0,23.0,71,0.00,,,0.00,0,Wunderground v.1.15,2013-03-13 00:49:00,
2013-03-12 19:50:00,30.4,22.1,30.30,WNW,298,8.0,13.0,71,0.00,,,0.00,0,Wunderground v.1.15,2013-03-13 00:50:00,
2013-03-12 19:52:00,30.4,22.1,30.30,WNW,303,8.0,13.0,71,0.00,,,0.00,0,Wunderground v.1.15,2013-03-13 00:52:00,
2013-03-12 19:53:00,30.3,22.0,30.30,NW,304,8.0,13.0,71,0.00,,,0.00,0,Wunderground v.1.15,2013-03-13 00:53:00,
2013-03-12 19:55:00,30.3,22.4,30.30,NW,320,7.0,13.0,72,0.00,,,0.00,0,Wunderground v.1.15,2013-03-13 00:55:00,
2013-03-12 19:57:00,30.3,22.4,30.31,NNW,327,8.0,18.0,72,0.00,,,0.00,0,Wunderground v.1.15,2013-03-13 00:57:00,
2013-03-12 19:59:00,30.3,22.4,30.31,NNW,335,16.0,19.0,72,0.00,,,0.00,0,Wunderground v.1.15,2013-03-13 00:59:00,
2013-03-12 20:00:00,30.2,22.3,30.31,NW,310,8.0,14.0,72,0.00,,,0.00,0,Wunderground v.1.15,2013-03-13 01:00:00,
2013-03-12 20:01:00,30.2,22.3,30.31,West,275,8.0,17.0,72,0.00,,,0.00,0,Wunderground v.1.15,2013-03-13 01:01:00,
2013-03-12 20:03:00,30.2,21.9,30.31,NW,317,10.0,21.0,71,0.00,,,0.00,0,Wunderground v.1.15,2013-03-13 01:03:00,
2013-03-12 20:05:00,30.2,23.5,30.31,WNW,300,7.0,21.0,76,0.00,,,0.00,0,Wunderground v.1.15,2013-03-13 01:05:00,
2013-03-12 20:06:00,30.2,21.9,30.31,NW,314,10.0,21.0,71,0.00,,,0.00,0,Wunderground v.1.15,2013-03-13 01:06:00,
2013-03-12 20:09:00,30.2,21.9,30.31,NW,313,13.0,21.0,71,0.00,,,0.00,0,Wunderground v.1.15,2013-03-13 01:09:00,
2013-03-12 20:10:00,30.2,21.9,30.31,NW,309,11.0,17.0,71,0.00,,,0.00,0,Wunderground v.1.15,2013-03-13 01:10:00,
2013-03-12 20:11:00,30.2,21.9,30.31,WNW,291,13.0,17.0,71,0.00,,,0.00,0,Wunderground v.1.15,2013-03-13 01:11:00,
2013-03-12 20:14:00,30.1,22.2,30.31,NW,308,12.0,17.0,72,0.00,,,0.00,0,Wunderground v.1.15,2013-03-13 01:14:00,
2013-03-12 20:16:00,30.1,22.2,30.31,NW,321,9.0,17.0,72,0.00,,,0.00,0,Wunderground v.1.15,2013-03-13 01:16:00,
2013-03-12 20:17:00,30.1,22.2,30.31,NW,314,9.0,17.0,72,0.00,,,0.00,0,Wunderground v.1.15,2013-03-13 01:17:00,
2013-03-12 20:20:00,30.0,22.1,30.31,WNW,289,13.0,17.0,72,0.00,,,0.00,0,Wunderground v.1.15,2013-03-13 01:20:00,
2013-03-12 20:22:00,30.0,22.1,30.31,West,281,10.0,13.0,72,0.00,,,0.00,0,Wunderground v.1.15,2013-03-13 01:22:00,
2013-03-12 20:23:00,30.0,22.1,30.31,NW,305,6.0,13.0,72,0.00,,,0.00,0,Wunderground v.1.15,2013-03-13 01:23:00,
2013-03-12 20:25:00,29.9,22.0,30.31,NW,319,9.0,15.0,72,0.00,,,0.00,0,Wunderground v.1.15,2013-03-13 01:25:00,
2013-03-12 20:27:00,29.9,22.0,30.32,WNW,294,10.0,18.0,72,0.00,,,0.00,0,Wunderground v.1.15,2013-03-13 01:27:00,
2013-03-12 20:28:00,30.0,22.1,30.32,NW,307,10.0,18.0,72,0.00,,,0.00,0,Wunderground v.1.15,2013-03-13 01:28:00,
2013-03-12 20:30:00,29.9,22.0,30.32,West,281,13.0,18.0,72,0.00,,,0.00,0,Wunderground v.1.15,2013-03-13 01:30:00,
2013-03-12 20:33:00,29.9,22.0,30.32,NNW,346,4.0,13.0,72,0.00,,,0.00,0,Wunderground v.1.15,2013-03-13 01:33:00,
2013-03-12 20:35:00,29.9,22.0,30.32,NNW,330,10.0,16.0,72,0.00,,,0.00,0,Wunderground v.1.15,2013-03-13 01:35:00,
2013-03-12 20:38:00,29.8,21.9,30.32,NW,316,8.0,16.0,72,0.00,,,0.00,0,Wunderground v.1.15,2013-03-13 01:38:00,
2013-03-12 20:39:00,29.8,21.9,30.32,WNW,288,17.0,17.0,72,0.00,,,0.00,0,Wunderground v.1.15,2013-03-13 01:39:00,
2013-03-12 20:40:00,29.8,21.9,30.32,WNW,301,12.0,12.0,72,0.00,,,0.00,0,Wunderground v.1.15,2013-03-13 01:40:00,
2013-03-12 20:43:00,29.7,22.1,30.32,NW,306,8.0,16.0,73,0.00,,,0.00,0,Wunderground v.1.15,2013-03-13 01:43:00,
2013-03-12 20:44:00,29.7,22.1,30.32,WNW,296,11.0,16.0,73,0.00,,,0.00,0,Wunderground v.1.15,2013-03-13 01:44:00,
2013-03-12 20:45:00,29.6,22.0,30.32,West,279,5.0,16.0,73,0.00,,,0.00,0,Wunderground v.1.15,2013-03-13 01:45:00,
2013-03-12 20:49:00,29.5,21.9,30.32,NNW,327,5.0,16.0,73,0.00,,,0.00,0,Wunderground v.1.15,2013-03-13 01:49:00,
2013-03-12 20:52:00,29.4,21.8,30.32,NW,310,7.0,9.0,73,0.00,,,0.00,0,Wunderground v.1.15,2013-03-13 01:52:00,
2013-03-12 20:54:00,29.3,21.7,30.32,WNW,289,10.0,11.0,73,0.00,,,0.00,0,Wunderground v.1.15,2013-03-13 01:54:00,
2013-03-12 20:55:00,29.3,22.0,30.33,WNW,300,3.0,11.0,74,0.00,,,0.00,0,Wunderground v.1.15,2013-03-13 01:55:00,
2013-03-12 20:57:00,29.2,21.6,30.32,NW,310,7.0,11.0,73,0.00,,,0.00,0,Wunderground v.1.15,2013-03-13 01:57:00,
2013-03-12 20:59:00,29.2,21.9,30.32,NW,319,11.0,13.0,74,0.00,,,0.00,0,Wunderground v.1.15,2013-03-13 01:59:00,
2013-03-12 21:01:00,29.2,21.9,30.32,NW,312,8.0,8.0,74,0.00,,,0.00,0,Wunderground v.1.15,2013-03-13 02:01:00,
2013-03-12 21:02:00,29.1,21.8,30.32,NW,312,6.0,8.0,74,0.00,,,0.00,0,Wunderground v.1.15,2013-03-13 02:02:00,
2013-03-12 21:04:00,29.1,21.8,30.32,NW,321,3.0,8.0,74,0.00,,,0.00,0,Wunderground v.1.15,2013-03-13 02:04:00,
2013-03-12 21:05:00,29.1,21.8,30.33,WNW,302,10.0,10.0,74,0.00,,,0.00,0,Wunderground v.1.15,2013-03-13 02:05:00,
2013-03-12 21:06:00,29.1,21.8,30.33,WNW,283,5.0,10.0,74,0.00,,,0.00,0,Wunderground v.1.15,2013-03-13 02:06:00,
2013-03-12 21:07:00,29.1,22.2,30.33,WNW,297,8.0,10.0,75,0.00,,,0.00,0,Wunderground v.1.15,2013-03-13 02:07:00,
2013-03-12 21:10:00,29.1,22.2,30.33,WNW,300,11.0,11.0,75,0.00,,,0.00,0,Wunderground v.1.15,2013-03-13 02:10:00,
2013-03-12 21:11:00,29.1,22.2,30.33,NW,304,8.0,11.0,75,0.00,,,0.00,0,Wunderground v.1.15,2013-03-13 02:11:00,
2013-03-12 21:13:00,29.1,22.2,30.33,NW,310,8.0,11.0,75,0.00,,,0.00,0,Wunderground v.1.15,2013-03-13 02:13:00,
2013-03-12 21:15:00,29.1,22.2,30.33,NW,306,8.0,11.0,75,0.00,,,0.00,0,Wunderground v.1.15,2013-03-13 02:15:00,
2013-03-12 21:16:00,29.1,22.2,30.33,WNW,302,7.0,11.0,75,0.00,,,0.00,0,Wunderground v.1.15,2013-03-13 02:16:00,
2013-03-12 21:17:00,29.1,22.5,30.33,WNW,300,3.0,11.0,76,0.00,,,0.00,0,Wunderground v.1.15,2013-03-13 02:17:00,
2013-03-12 21:18:00,29.1,22.2,30.33,NW,306,6.0,11.0,75,0.00,,,0.00,0,Wunderground v.1.15,2013-03-13 02:18:00,
2013-03-12 21:21:00,29.1,22.5,30.33,NW,325,6.0,6.0,76,0.00,,,0.00,0,Wunderground v.1.15,2013-03-13 02:21:00,
2013-03-12 21:23:00,29.1,22.5,30.33,NW,319,4.0,8.0,76,0.00,,,0.00,0,Wunderground v.1.15,2013-03-13 02:23:00,
2013-03-12 21:26:00,29.1,22.5,30.33,NW,313,5.0,9.0,76,0.00,,,0.00,0,Wunderground v.1.15,2013-03-13 02:26:00,
2013-03-12 21:27:00,29.1,22.5,30.33,NW,323,4.0,9.0,76,0.00,,,0.00,0,Wunderground v.1.15,2013-03-13 02:27:00,
2013-03-12 21:28:00,29.1,22.5,30.33,NW,325,5.0,9.0,76,0.00,,,0.00,0,Wunderground v.1.15,2013-03-13 02:28:00,
2013-03-12 21:31:00,29.0,22.7,30.33,NW,313,9.0,9.0,77,0.00,,,0.00,0,Wunderground v.1.15,2013-03-13 02:31:00,
2013-03-12 21:32:00,29.0,22.7,30.33,NW,324,4.0,9.0,77,0.00,,,0.00,0,Wunderground v.1.15,2013-03-13 02:32:00,
2013-03-12 21:33:00,29.0,22.7,30.33,NW,312,4.0,9.0,77,0.00,,,0.00,0,Wunderground v.1.15,2013-03-13 02:33:00,
2013-03-12 21:36:00,29.0,22.7,30.33,NW,311,5.0,9.0,77,0.00,,,0.00,0,Wunderground v.1.15,2013-03-13 02:36:00,
2013-03-12 21:38:00,29.0,22.7,30.33,WNW,302,3.0,11.0,77,0.00,,,0.00,0,Wunderground v.1.15,2013-03-13 02:38:00,
2013-03-12 21:39:00,29.0,22.7,30.33,NNW,329,6.0,11.0,77,0.00,,,0.00,0,Wunderground v.1.15,2013-03-13 02:39:00,
2013-03-12 21:41:00,29.0,22.7,30.33,WNW,300,7.0,12.0,77,0.00,,,0.00,0,Wunderground v.1.15,2013-03-13 02:41:00,
2013-03-12 21:43:00,29.0,23.0,30.33,NW,319,6.0,12.0,78,0.00,,,0.00,0,Wunderground v.1.15,2013-03-13 02:43:00,
2013-03-12 21:44:00,29.0,23.0,30.33,NW,319,3.0,12.0,78,0.00,,,0.00,0,Wunderground v.1.15,2013-03-13 02:44:00,
2013-03-12 21:46:00,29.0,23.0,30.33,NW,304,6.0,12.0,78,0.00,,,0.00,0,Wunderground v.1.15,2013-03-13 02:46:00,
2013-03-12 21:49:00,29.0,23.0,30.33,NW,319,7.0,12.0,78,0.00,,,0.00,0,Wunderground v.1.15,2013-03-13 02:49:00,
2013-03-12 21:51:00,29.0,23.0,30.33,West,267,8.0,10.0,78,0.00,,,0.00,0,Wunderground v.1.15,2013-03-13 02:51:00,
2013-03-12 21:52:00,29.0,23.0,30.33,NW,325,5.0,10.0,78,0.00,,,0.00,0,Wunderground v.1.15,2013-03-13 02:52:00,
2013-03-12 21:54:00,29.0,23.0,30.33,NW,323,4.0,10.0,78,0.00,,,0.00,0,Wunderground v.1.15,2013-03-13 02:54:00,
2013-03-12 21:56:00,29.0,23.0,30.33,NW,308,10.0,14.0,78,0.00,,,0.00,0,Wunderground v.1.15,2013-03-13 02:56:00,
2013-03-12 21:59:00,29.0,23.0,30.33,West,279,4.0,14.0,78,0.00,,,0.00,0,Wunderground v.1.15,2013-03-13 02:59:00,
2013-03-12 22:01:00,29.0,23.0,30.33,WNW,291,7.0,10.0,78,0.00,,,0.00,0,Wunderground v.1.15,2013-03-13 03:01:00,
2013-03-12 22:02:00,29.0,23.0,30.33,WNW,287,10.0,11.0,78,0.00,,,0.00,0,Wunderground v.1.15,2013-03-13 03:02:00,
2013-03-12 22:04:00,28.9,22.9,30.33,WNW,288,6.0,11.0,78,0.00,,,0.00,0,Wunderground v.1.15,2013-03-13 03:04:00,
2013-03-12 22:05:00,28.9,22.6,30.33,NNW,335,9.0,11.0,77,0.00,,,0.00,0,Wunderground v.1.15,2013-03-13 03:05:00,
2013-03-12 22:07:00,28.9,22.6,30.33,NW,313,4.0,11.0,77,0.00,,,0.00,0,Wunderground v.1.15,2013-03-13 03:07:00,
2013-03-12 22:09:00,28.8,22.5,30.33,NW,316,6.0,11.0,77,0.00,,,0.00,0,Wunderground v.1.15,2013-03-13 03:09:00,
2013-03-12 22:11:00,28.8,22.5,30.33,WNW,302,8.0,16.0,77,0.00,,,0.00,0,Wunderground v.1.15,2013-03-13 03:11:00,
2013-03-12 22:12:00,28.8,22.5,30.34,WNW,296,6.0,16.0,77,0.00,,,0.00,0,Wunderground v.1.15,2013-03-13 03:12:00,
2013-03-12 22:13:00,28.7,22.4,30.34,NW,308,7.0,16.0,77,0.00,,,0.00,0,Wunderground v.1.15,2013-03-13 03:13:00,
2013-03-12 22:15:00,28.7,22.4,30.34,WNW,283,9.0,16.0,77,0.00,,,0.00,0,Wunderground v.1.15,2013-03-13 03:15:00,
2013-03-12 22:16:00,28.6,22.3,30.34,West,279,13.0,16.0,77,0.00,,,0.00,0,Wunderground v.1.15,2013-03-13 03:16:00,
2013-03-12 22:18:00,28.6,22.3,30.34,NW,316,6.0,16.0,77,0.00,,,0.00,0,Wunderground v.1.15,2013-03-13 03:18:00,
2013-03-12 22:19:00,28.5,22.2,30.34,NW,312,5.0,16.0,77,0.00,,,0.00,0,Wunderground v.1.15,2013-03-13 03:19:00,
2013-03-12 22:21:00,28.5,22.2,30.34,NNW,328,5.0,8.0,77,0.00,,,0.00,0,Wunderground v.1.15,2013-03-13 03:21:00,
2013-03-12 22:23:00,28.5,22.2,30.34,NNW,345,5.0,9.0,77,0.00,,,0.00,0,Wunderground v.1.15,2013-03-13 03:23:00,
2013-03-12 22:24:00,28.5,22.2,30.34,NW,316,9.0,9.0,77,0.00,,,0.00,0,Wunderground v.1.15,2013-03-13 03:24:00,
2013-03-12 22:26:00,28.4,22.1,30.34,WNW,302,4.0,9.0,77,0.00,,,0.00,0,Wunderground v.1.15,2013-03-13 03:26:00,
2013-03-12 22:27:00,28.4,22.1,30.34,West,260,7.0,12.0,77,0.00,,,0.00,0,Wunderground v.1.15,2013-03-13 03:27:00,
2013-03-12 22:29:00,28.3,22.3,30.34,WNW,298,9.0,12.0,78,0.00,,,0.00,0,Wunderground v.1.15,2013-03-13 03:29:00,
2013-03-12 22:32:00,28.2,22.2,30.34,NW,321,6.0,19.0,78,0.00,,,0.00,0,Wunderground v.1.15,2013-03-13 03:32:00,
2013-03-12 22:33:00,28.2,21.9,30.34,NNW,333,10.0,19.0,77,0.00,,,0.00,0,Wunderground v.1.15,2013-03-13 03:33:00,
2013-03-12 22:34:00,28.1,21.8,30.34,WNW,297,3.0,19.0,77,0.00,,,0.00,0,Wunderground v.1.15,2013-03-13 03:34:00,
2013-03-12 22:35:00,28.1,21.8,30.34,NW,306,7.0,19.0,77,0.00,,,0.00,0,Wunderground v.1.15,2013-03-13 03:35:00,
2013-03-12 22:37:00,28.0,21.7,30.34,WNW,296,5.0,19.0,77,0.00,,,0.00,0,Wunderground v.1.15,2013-03-13 03:37:00,
2013-03-12 22:38:00,28.0,21.7,30.34,NW,324,5.0,19.0,77,0.00,,,0.00,0,Wunderground v.1.15,2013-03-13 03:38:00,
2013-03-12 22:39:00,28.0,21.7,30.34,West,269,5.0,19.0,77,0.00,,,0.00,0,Wunderground v.1.15,2013-03-13 03:39:00,
2013-03-12 22:40:00,28.0,21.7,30.34,NW,323,8.0,9.0,77,0.00,,,0.00,0,Wunderground v.1.15,2013-03-13 03:40:00,
2013-03-12 22:42:00,27.9,21.6,30.34,NW,322,5.0,9.0,77,0.00,,,0.00,0,Wunderground v.1.15,2013-03-13 03:42:00,
2013-03-12 22:43:00,27.9,21.6,30.34,WNW,303,7.0,9.0,77,0.00,,,0.00,0,Wunderground v.1.15,2013-03-13 03:43:00,
2013-03-12 22:44:00,27.8,21.5,30.34,NW,316,15.0,15.0,77,0.00,,,0.00,0,Wunderground v.1.15,2013-03-13 03:44:00,
2013-03-12 22:45:00,27.9,21.6,30.34,NW,317,6.0,16.0,77,0.00,,,0.00,0,Wunderground v.1.15,2013-03-13 03:45:00,
2013-03-12 22:48:00,27.8,21.5,30.34,WNW,300,10.0,16.0,77,0.00,,,0.00,0,Wunderground v.1.15,2013-03-13 03:48:00,
2013-03-12 22:49:00,27.7,21.4,30.34,NW,318,7.0,16.0,77,0.00,,,0.00,0,Wunderground v.1.15,2013-03-13 03:49:00,
2013-03-12 22:51:00,27.7,21.4,30.34,WNW,297,13.0,13.0,77,0.00,,,0.00,0,Wunderground v.1.15,2013-03-13 03:51:00,
2013-03-12 22:53:00,27.6,21.3,30.34,WNW,295,8.0,13.0,77,0.00,,,0.00,0,Wunderground v.1.15,2013-03-13 03:53:00,
2013-03-12 22:55:00,27.6,21.3,30.34,NW,308,3.0,13.0,77,0.00,,,0.00,0,Wunderground v.1.15,2013-03-13 03:55:00,
2013-03-12 22:56:00,27.6,21.3,30.34,WNW,295,6.0,13.0,77,0.00,,,0.00,0,Wunderground v.1.15,2013-03-13 03:56:00,
2013-03-12 22:59:00,27.5,21.2,30.34,NNW,338,6.0,13.0,77,0.00,,,0.00,0,Wunderground v.1.15,2013-03-13 03:59:00,
2013-03-12 23:00:00,27.5,21.2,30.34,WNW,302,7.0,7.0,77,0.00,,,0.00,0,Wunderground v.1.15,2013-03-13 04:00:00,
2013-03-12 23:05:00,27.3,21.3,30.35,NW,308,8.0,12.0,78,0.00,,,0.00,0,Wunderground v.1.15,2013-03-13 04:05:00,
2013-03-12 23:06:00,27.2,21.2,30.35,NW,314,6.0,12.0,78,0.00,,,0.00,0,Wunderground v.1.15,2013-03-13 04:06:00,
2013-03-12 23:11:00,27.1,21.2,30.35,NNW,337,7.0,8.0,78,0.00,,,0.00,0,Wunderground v.1.15,2013-03-13 04:11:00,
2013-03-12 23:12:00,27.1,21.2,30.35,NW,319,8.0,8.0,78,0.00,,,0.00,0,Wunderground v.1.15,2013-03-13 04:12:00,
2013-03-12 23:15:00,27.1,21.2,30.35,WNW,287,7.0,11.0,78,0.00,,,0.00,0,Wunderground v.1.15,2013-03-13 04:15:00,
2013-03-12 23:17:00,27.0,21.1,30.35,WNW,290,6.0,11.0,78,0.00,,,0.00,0,Wunderground v.1.15,2013-03-13 04:17:00,
2013-03-12 23:18:00,27.0,21.1,30.35,WNW,283,8.0,11.0,78,0.00,,,0.00,0,Wunderground v.1.15,2013-03-13 04:18:00,
2013-03-12 23:20:00,26.9,21.0,30.35,WNW,286,7.0,12.0,78,0.00,,,0.00,0,Wunderground v.1.15,2013-03-13 04:20:00,
2013-03-12 23:22:00,26.9,21.0,30.35,WNW,302,9.0,11.0,78,0.00,,,0.00,0,Wunderground v.1.15,2013-03-13 04:22:00,
2013-03-12 23:23:00,26.9,21.0,30.35,West,274,8.0,11.0,78,0.00,,,0.00,0,Wunderground v.1.15,2013-03-13 04:23:00,
2013-03-12 23:25:00,26.8,20.9,30.35,WNW,302,9.0,13.0,78,0.00,,,0.00,0,Wunderground v.1.15,2013-03-13 04:25:00,
2013-03-12 23:28:00,26.8,20.9,30.35,NW,312,7.0,13.0,78,0.00,,,0.00,0,Wunderground v.1.15,2013-03-13 04:28:00,
2013-03-12 23:30:00,26.7,20.8,30.35,WNW,298,4.0,8.0,78,0.00,,,0.00,0,Wunderground v.1.15,2013-03-13 04:30:00,
2013-03-12 23:33:00,26.6,20.7,30.35,WNW,295,6.0,8.0,78,0.00,,,0.00,0,Wunderground v.1.15,2013-03-13 04:33:00,
2013-03-12 23:35:00,26.6,20.7,30.35,WNW,295,4.0,8.0,78,0.00,,,0.00,0,Wunderground v.1.15,2013-03-13 04:35:00,
2013-03-12 23:38:00,26.5,20.6,30.35,WNW,296,6.0,12.0,78,0.00,,,0.00,0,Wunderground v.1.15,2013-03-13 04:38:00,
2013-03-12 23:41:00,26.4,20.5,30.36,WNW,301,3.0,6.0,78,0.00,,,0.00,0,Wunderground v.1.15,2013-03-13 04:41:00,
2013-03-12 23:44:00,26.3,20.4,30.36,WNW,303,4.0,8.0,78,0.00,,,0.00,0,Wunderground v.1.15,2013-03-13 04:44:00,
2013-03-12 23:48:00,26.3,20.4,30.36,WNW,298,4.0,8.0,78,0.00,,,0.00,0,Wunderground v.1.15,2013-03-13 04:48:00,
2013-03-12 23:49:00,26.2,20.3,30.36,WNW,300,5.0,8.0,78,0.00,,,0.00,0,Wunderground v.1.15,2013-03-13 04:49:00,
2013-03-12 23:50:00,26.3,20.4,30.36,WNW,303,2.0,8.0,78,0.00,,,0.00,0,Wunderground v.1.15,2013-03-13 04:50:00,
2013-03-12 23:53:00,26.1,20.2,30.36,NW,319,7.0,9.0,78,0.00,,,0.00,0,Wunderground v.1.15,2013-03-13 04:53:00,
2013-03-12 23:54:00,26.1,20.2,30.36,NW,320,5.0,9.0,78,0.00,,,0.00,0,Wunderground v.1.15,2013-03-13 04:54:00,
2013-03-12 23:55:00,26.1,20.2,30.36,WNW,303,5.0,9.0,78,0.00,,,0.00,0,Wunderground v.1.15,2013-03-13 04:55:00,
2013-03-12 23:58:00,26.1,20.2,30.36,NW,312,6.0,9.0,78,0.00,,,0.00,0,Wunderground v.1.15,2013-03-13 04:58:00,
2013-03-12 23:59:00,26.0,20.1,30.36,WNW,295,5.0,9.0,78,0.00,,,0.00,0,Wunderground v.1.15,2013-03-13 04:59:00,